Time,TemperatureF,DewpointF,PressureIn,WindDirection,WindDirectionDegrees,WindSpeedMPH,WindSpeedGustMPH,Humidity,HourlyPrecipIn,Conditions,Clouds,dailyrainin,SoftwareType,DateUTC
2013-04-05 00:00:00,46.4,26.8,29.90,WSW,240,0.0,0.0,46,0.00,,---,0.00,VWS V14.00,2013-04-05 04:00:00,
2013-04-05 00:02:00,46.3,26.7,29.91,WSW,240,0.0,0.0,46,0.00,,---,0.00,VWS V14.00,2013-04-05 04:02:00,
2013-04-05 00:05:00,46.1,27.0,29.91,WSW,240,0.0,0.0,47,0.00,,---,0.00,VWS V14.00,2013-04-05 04:05:00,
2013-04-05 00:07:00,46.1,27.0,29.91,WSW,240,0.0,0.0,47,0.00,,---,0.00,VWS V14.00,2013-04-05 04:07:00,
2013-04-05 00:08:00,46.0,26.9,29.91,WSW,240,0.0,0.0,47,0.00,,---,0.00,VWS V14.00,2013-04-05 04:08:00,
2013-04-05 00:10:00,45.8,26.7,29.91,WSW,240,0.0,0.0,47,0.00,,---,0.00,VWS V14.00,2013-04-05 04:10:00,
2013-04-05 00:12:00,45.7,26.6,29.91,WSW,240,0.0,0.0,47,0.00,,---,0.00,VWS V14.00,2013-04-05 04:12:00,
2013-04-05 00:15:00,45.6,26.5,29.90,WSW,240,0.0,0.0,47,0.00,,---,0.00,VWS V14.00,2013-04-05 04:15:00,
2013-04-05 00:16:00,45.5,27.0,29.91,WSW,240,0.0,0.0,48,0.00,,---,0.00,VWS V14.00,2013-04-05 04:16:00,
2013-04-05 00:17:00,45.4,26.9,29.90,WSW,240,0.0,0.0,48,0.00,,---,0.00,VWS V14.00,2013-04-05 04:17:00,
2013-04-05 00:20:00,45.1,26.6,29.91,WSW,240,0.0,0.0,48,0.00,,---,0.00,VWS V14.00,2013-04-05 04:20:00,
2013-04-05 00:22:00,45.0,27.0,29.90,WSW,240,0.0,0.0,49,0.00,,---,0.00,VWS V14.00,2013-04-05 04:22:00,
2013-04-05 00:24:00,44.7,26.7,29.90,WSW,240,0.0,0.0,49,0.00,,---,0.00,VWS V14.00,2013-04-05 04:24:00,
2013-04-05 00:25:00,44.6,26.6,29.90,WSW,240,0.0,0.0,49,0.00,,---,0.00,VWS V14.00,2013-04-05 04:25:00,
2013-04-05 00:27:00,44.5,26.5,29.90,WSW,240,0.0,0.0,49,0.00,,---,0.00,VWS V14.00,2013-04-05 04:27:00,
2013-04-05 00:28:00,44.5,26.5,29.90,WSW,240,0.0,0.0,49,0.00,,---,0.00,VWS V14.00,2013-04-05 04:28:00,
2013-04-05 00:30:00,44.2,26.3,29.91,WSW,240,0.0,0.0,49,0.00,,---,0.00,VWS V14.00,2013-04-05 04:30:00,
2013-04-05 00:32:00,43.9,26.5,29.91,WSW,240,0.0,0.0,50,0.00,,---,0.00,VWS V14.00,2013-04-05 04:32:00,
2013-04-05 00:34:00,43.7,26.3,29.91,WSW,240,0.0,0.0,50,0.00,,---,0.00,VWS V14.00,2013-04-05 04:34:00,
2013-04-05 00:36:00,43.5,26.6,29.91,WSW,240,0.0,0.0,51,0.00,,---,0.00,VWS V14.00,2013-04-05 04:36:00,
2013-04-05 00:37:00,43.4,26.5,29.91,WSW,240,0.0,0.0,51,0.00,,---,0.00,VWS V14.00,2013-04-05 04:37:00,
2013-04-05 00:41:00,43.1,26.2,29.91,WSW,240,0.0,0.0,51,0.00,,---,0.00,VWS V14.00,2013-04-05 04:41:00,
2013-04-05 00:42:00,42.9,26.5,29.91,WSW,240,0.0,0.0,52,0.00,,---,0.00,VWS V14.00,2013-04-05 04:42:00,
2013-04-05 00:43:00,42.8,26.4,29.91,WSW,240,0.0,0.0,52,0.00,,---,0.00,VWS V14.00,2013-04-05 04:43:00,
2013-04-05 00:44:00,42.7,26.3,29.91,WSW,240,2.0,3.0,52,0.00,,---,0.00,VWS V14.00,2013-04-05 04:44:00,
2013-04-05 00:46:00,42.4,26.0,29.91,WSW,240,0.0,3.0,52,0.00,,---,0.00,VWS V14.00,2013-04-05 04:46:00,
2013-04-05 00:47:00,42.4,26.0,29.91,WSW,240,0.0,3.0,52,0.00,,---,0.00,VWS V14.00,2013-04-05 04:47:00,
2013-04-05 00:49:00,42.2,26.3,29.91,WSW,240,3.0,3.0,53,0.00,,---,0.00,VWS V14.00,2013-04-05 04:49:00,
2013-04-05 00:52:00,42.0,26.1,29.91,WSW,240,2.0,3.0,53,0.00,,---,0.00,VWS V14.00,2013-04-05 04:52:00,
2013-04-05 00:53:00,41.9,26.0,29.91,WSW,240,2.0,3.0,53,0.00,,---,0.00,VWS V14.00,2013-04-05 04:53:00,
2013-04-05 00:55:00,41.8,25.9,29.91,WSW,240,1.0,3.0,53,0.00,,---,0.00,VWS V14.00,2013-04-05 04:55:00,
2013-04-05 00:58:00,41.5,26.1,29.91,WSW,240,1.0,3.0,54,0.00,,---,0.00,VWS V14.00,2013-04-05 04:58:00,
2013-04-05 01:01:00,41.4,26.0,29.92,WSW,240,1.0,2.0,54,0.00,,---,0.00,VWS V14.00,2013-04-05 05:01:00,
2013-04-05 01:02:00,41.4,26.0,29.92,WSW,240,1.0,2.0,54,0.00,,---,0.00,VWS V14.00,2013-04-05 05:02:00,
2013-04-05 01:03:00,41.4,26.0,29.92,WSW,240,0.0,2.0,54,0.00,,---,0.00,VWS V14.00,2013-04-05 05:03:00,
2013-04-05 01:06:00,41.2,26.3,29.92,WSW,240,0.0,2.0,55,0.00,,---,0.00,VWS V14.00,2013-04-05 05:06:00,
2013-04-05 01:08:00,41.1,26.2,29.92,WSW,240,0.0,2.0,55,0.00,,---,0.00,VWS V14.00,2013-04-05 05:08:00,
2013-04-05 01:09:00,41.1,26.2,29.92,WSW,240,1.0,2.0,55,0.00,,---,0.00,VWS V14.00,2013-04-05 05:09:00,
2013-04-05 01:14:00,41.0,26.1,29.92,WSW,240,2.0,2.0,55,0.00,,---,0.00,VWS V14.00,2013-04-05 05:14:00,
2013-04-05 01:15:00,40.9,26.0,29.92,WSW,240,1.0,2.0,55,0.00,,---,0.00,VWS V14.00,2013-04-05 05:15:00,
2013-04-05 01:20:00,40.8,26.3,29.92,WSW,240,0.0,2.0,56,0.00,,---,0.00,VWS V14.00,2013-04-05 05:20:00,
2013-04-05 01:23:00,40.7,26.2,29.92,WSW,240,0.0,2.0,56,0.00,,---,0.00,VWS V14.00,2013-04-05 05:23:00,
2013-04-05 01:25:00,40.7,26.2,29.92,WSW,240,0.0,2.0,56,0.00,,---,0.00,VWS V14.00,2013-04-05 05:25:00,
2013-04-05 01:26:00,40.7,26.2,29.92,WSW,240,1.0,2.0,56,0.00,,---,0.00,VWS V14.00,2013-04-05 05:26:00,
2013-04-05 01:28:00,40.6,26.6,29.92,WSW,240,0.0,0.0,57,0.00,,---,0.00,VWS V14.00,2013-04-05 05:28:00,
2013-04-05 01:30:00,40.5,26.5,29.92,WSW,240,1.0,1.0,57,0.00,,---,0.00,VWS V14.00,2013-04-05 05:30:00,
2013-04-05 01:31:00,40.5,26.5,29.92,WSW,240,1.0,2.0,57,0.00,,---,0.00,VWS V14.00,2013-04-05 05:31:00,
2013-04-05 01:33:00,40.5,26.9,29.92,WSW,240,1.0,2.0,58,0.00,,---,0.00,VWS V14.00,2013-04-05 05:33:00,
2013-04-05 01:36:00,40.5,26.9,29.92,WSW,240,2.0,3.0,58,0.00,,---,0.00,VWS V14.00,2013-04-05 05:36:00,
2013-04-05 01:37:00,40.5,26.9,29.92,WSW,240,3.0,3.0,58,0.00,,---,0.00,VWS V14.00,2013-04-05 05:37:00,
2013-04-05 01:40:00,40.6,27.0,29.92,WSW,240,4.0,4.0,58,0.00,,---,0.00,VWS V14.00,2013-04-05 05:40:00,
2013-04-05 01:42:00,40.8,26.8,29.92,WSW,240,3.0,4.0,57,0.00,,---,0.00,VWS V14.00,2013-04-05 05:42:00,
2013-04-05 01:45:00,41.1,27.0,29.92,WSW,240,2.0,4.0,57,0.00,,---,0.00,VWS V14.00,2013-04-05 05:45:00,
2013-04-05 01:47:00,41.1,27.0,29.92,WSW,240,2.0,4.0,57,0.00,,---,0.00,VWS V14.00,2013-04-05 05:47:00,
2013-04-05 01:48:00,41.2,27.1,29.92,WSW,240,1.0,4.0,57,0.00,,---,0.00,VWS V14.00,2013-04-05 05:48:00,
2013-04-05 01:49:00,41.2,27.1,29.92,WSW,240,1.0,4.0,57,0.00,,---,0.00,VWS V14.00,2013-04-05 05:49:00,
2013-04-05 01:52:00,41.4,26.9,29.92,WSW,240,2.0,4.0,56,0.00,,---,0.00,VWS V14.00,2013-04-05 05:52:00,
2013-04-05 01:53:00,41.5,27.0,29.92,WSW,246,4.0,5.0,56,0.00,,---,0.00,VWS V14.00,2013-04-05 05:53:00,
2013-04-05 01:56:00,41.8,27.3,29.92,West,267,3.0,6.0,56,0.00,,---,0.00,VWS V14.00,2013-04-05 05:56:00,
2013-04-05 01:57:00,41.8,26.8,29.92,West,267,4.0,6.0,55,0.00,,---,0.00,VWS V14.00,2013-04-05 05:57:00,
2013-04-05 01:58:00,41.9,26.9,29.92,West,274,4.0,6.0,55,0.00,,---,0.00,VWS V14.00,2013-04-05 05:58:00,
2013-04-05 01:59:00,42.0,27.0,29.92,West,276,5.0,6.0,55,0.00,,---,0.00,VWS V14.00,2013-04-05 05:59:00,
2013-04-05 02:02:00,42.1,27.1,29.92,WNW,283,4.0,6.0,55,0.00,,---,0.00,VWS V14.00,2013-04-05 06:02:00,
2013-04-05 02:04:00,42.1,27.1,29.92,WNW,283,4.0,6.0,55,0.00,,---,0.00,VWS V14.00,2013-04-05 06:04:00,
2013-04-05 02:07:00,42.0,27.0,29.92,WNW,286,4.0,6.0,55,0.00,,---,0.00,VWS V14.00,2013-04-05 06:07:00,
2013-04-05 02:08:00,42.0,27.0,29.92,WNW,288,5.0,6.0,55,0.00,,---,0.00,VWS V14.00,2013-04-05 06:08:00,
2013-04-05 02:09:00,42.1,27.1,29.93,WNW,288,5.0,6.0,55,0.00,,---,0.00,VWS V14.00,2013-04-05 06:09:00,
2013-04-05 02:10:00,42.1,27.1,29.93,WNW,288,3.0,6.0,55,0.00,,---,0.00,VWS V14.00,2013-04-05 06:10:00,
2013-04-05 02:13:00,42.2,27.2,29.92,WNW,289,5.0,6.0,55,0.00,,---,0.00,VWS V14.00,2013-04-05 06:13:00,
2013-04-05 02:14:00,42.2,27.2,29.92,WNW,288,4.0,6.0,55,0.00,,---,0.00,VWS V14.00,2013-04-05 06:14:00,
2013-04-05 02:15:00,42.2,27.2,29.93,WNW,295,6.0,7.0,55,0.00,,---,0.00,VWS V14.00,2013-04-05 06:15:00,
2013-04-05 02:16:00,42.3,27.3,29.92,NW,310,4.0,7.0,55,0.00,,---,0.00,VWS V14.00,2013-04-05 06:16:00,
2013-04-05 02:19:00,42.5,27.5,29.92,NNW,330,6.0,7.0,55,0.00,,---,0.00,VWS V14.00,2013-04-05 06:19:00,
2013-04-05 02:20:00,42.4,27.4,29.92,NNW,330,4.0,7.0,55,0.00,,---,0.00,VWS V14.00,2013-04-05 06:20:00,
2013-04-05 02:22:00,42.5,27.5,29.92,North,349,3.0,8.0,55,0.00,,---,0.00,VWS V14.00,2013-04-05 06:22:00,
2013-04-05 02:25:00,42.6,27.6,29.92,North,350,3.0,8.0,55,0.00,,---,0.00,VWS V14.00,2013-04-05 06:25:00,
2013-04-05 02:26:00,42.6,27.6,29.92,North,355,2.0,8.0,55,0.00,,---,0.00,VWS V14.00,2013-04-05 06:26:00,
2013-04-05 02:27:00,42.7,27.7,29.92,North,350,4.0,8.0,55,0.00,,---,0.00,VWS V14.00,2013-04-05 06:27:00,
2013-04-05 02:31:00,42.7,27.7,29.92,NNW,348,3.0,4.0,55,0.00,,---,0.00,VWS V14.00,2013-04-05 06:31:00,
2013-04-05 02:32:00,42.6,27.6,29.92,NNW,348,3.0,4.0,55,0.00,,---,0.00,VWS V14.00,2013-04-05 06:32:00,
2013-04-05 02:35:00,42.5,27.9,29.92,North,349,4.0,6.0,56,0.00,,---,0.00,VWS V14.00,2013-04-05 06:35:00,
2013-04-05 02:37:00,42.5,27.9,29.92,North,349,3.0,6.0,56,0.00,,---,0.00,VWS V14.00,2013-04-05 06:37:00,
2013-04-05 02:42:00,42.5,27.9,29.92,NNW,346,1.0,6.0,56,0.00,,---,0.00,VWS V14.00,2013-04-05 06:42:00,
2013-04-05 02:43:00,42.4,28.3,29.93,NNW,346,2.0,6.0,57,0.00,,---,0.00,VWS V14.00,2013-04-05 06:43:00,
2013-04-05 02:46:00,42.3,28.2,29.92,NNW,347,0.0,6.0,57,0.00,,---,0.00,VWS V14.00,2013-04-05 06:46:00,
2013-04-05 02:48:00,42.3,28.2,29.92,NNW,346,0.0,6.0,57,0.00,,---,0.00,VWS V14.00,2013-04-05 06:48:00,
2013-04-05 02:49:00,42.3,28.2,29.92,NNW,347,1.0,6.0,57,0.00,,---,0.00,VWS V14.00,2013-04-05 06:49:00,
2013-04-05 02:51:00,42.2,28.5,29.92,NNW,345,1.0,6.0,58,0.00,,---,0.00,VWS V14.00,2013-04-05 06:51:00,
2013-04-05 02:53:00,42.2,28.5,29.92,NNW,345,1.0,6.0,58,0.00,,---,0.00,VWS V14.00,2013-04-05 06:53:00,
2013-04-05 02:54:00,42.2,28.5,29.92,NNW,345,2.0,6.0,58,0.00,,---,0.00,VWS V14.00,2013-04-05 06:54:00,
2013-04-05 02:56:00,42.2,28.5,29.92,NNW,345,1.0,6.0,58,0.00,,---,0.00,VWS V14.00,2013-04-05 06:56:00,
2013-04-05 02:58:00,42.1,28.4,29.93,NNW,345,2.0,6.0,58,0.00,,---,0.00,VWS V14.00,2013-04-05 06:58:00,
2013-04-05 02:59:00,42.1,28.4,29.92,NNW,344,3.0,4.0,58,0.00,,---,0.00,VWS V14.00,2013-04-05 06:59:00,
2013-04-05 03:02:00,42.0,28.3,29.92,NNW,345,2.0,4.0,58,0.00,,---,0.00,VWS V14.00,2013-04-05 07:02:00,
2013-04-05 03:04:00,42.0,28.7,29.93,NNW,344,2.0,4.0,59,0.00,,---,0.00,VWS V14.00,2013-04-05 07:04:00,
2013-04-05 03:05:00,42.0,28.7,29.93,NNW,344,2.0,4.0,59,0.00,,---,0.00,VWS V14.00,2013-04-05 07:05:00,
2013-04-05 03:08:00,41.9,28.6,29.92,NNW,342,1.0,4.0,59,0.00,,---,0.00,VWS V14.00,2013-04-05 07:08:00,
2013-04-05 03:10:00,41.8,28.5,29.93,NNW,343,0.0,4.0,59,0.00,,---,0.00,VWS V14.00,2013-04-05 07:10:00,
2013-04-05 03:13:00,41.7,28.4,29.92,NNW,342,0.0,4.0,59,0.00,,---,0.00,VWS V14.00,2013-04-05 07:13:00,
2013-04-05 03:15:00,41.7,28.9,29.92,NNW,343,0.0,4.0,60,0.00,,---,0.00,VWS V14.00,2013-04-05 07:15:00,
2013-04-05 03:16:00,41.6,28.8,29.92,NNW,343,0.0,4.0,60,0.00,,---,0.00,VWS V14.00,2013-04-05 07:16:00,
2013-04-05 03:19:00,41.6,28.8,29.92,NNW,343,0.0,4.0,60,0.00,,---,0.00,VWS V14.00,2013-04-05 07:19:00,
2013-04-05 03:20:00,41.6,28.8,29.92,NNW,342,0.0,4.0,60,0.00,,---,0.00,VWS V14.00,2013-04-05 07:20:00,
2013-04-05 03:21:00,41.5,28.7,29.93,NNW,342,0.0,4.0,60,0.00,,---,0.00,VWS V14.00,2013-04-05 07:21:00,
2013-04-05 03:22:00,41.5,28.7,29.93,NNW,342,0.0,4.0,60,0.00,,---,0.00,VWS V14.00,2013-04-05 07:22:00,
2013-04-05 03:25:00,41.4,28.6,29.93,NNW,343,0.0,4.0,60,0.00,,---,0.00,VWS V14.00,2013-04-05 07:25:00,
2013-04-05 03:26:00,41.4,28.6,29.93,NNW,342,0.0,4.0,60,0.00,,---,0.00,VWS V14.00,2013-04-05 07:26:00,
2013-04-05 03:27:00,41.4,28.6,29.93,NNW,342,0.0,4.0,60,0.00,,---,0.00,VWS V14.00,2013-04-05 07:27:00,
2013-04-05 03:31:00,41.1,28.3,29.93,NNW,343,0.0,0.0,60,0.00,,---,0.00,VWS V14.00,2013-04-05 07:31:00,
2013-04-05 03:32:00,41.1,28.7,29.93,NNW,343,0.0,0.0,61,0.00,,---,0.00,VWS V14.00,2013-04-05 07:32:00,
2013-04-05 03:33:00,41.0,28.6,29.93,NNW,343,0.0,1.0,61,0.00,,---,0.00,VWS V14.00,2013-04-05 07:33:00,
2013-04-05 03:36:00,40.8,28.4,29.93,NNW,342,0.0,1.0,61,0.00,,---,0.00,VWS V14.00,2013-04-05 07:36:00,
2013-04-05 03:39:00,40.5,28.5,29.93,NNW,342,1.0,1.0,62,0.00,,---,0.00,VWS V14.00,2013-04-05 07:39:00,
2013-04-05 03:41:00,40.4,28.4,29.93,NNW,342,0.0,1.0,62,0.00,,---,0.00,VWS V14.00,2013-04-05 07:41:00,
2013-04-05 03:42:00,40.4,28.8,29.94,NNW,343,1.0,1.0,63,0.00,,---,0.00,VWS V14.00,2013-04-05 07:42:00,
2013-04-05 03:44:00,40.4,29.2,29.94,NNW,342,1.0,1.0,64,0.00,,---,0.00,VWS V14.00,2013-04-05 07:44:00,
2013-04-05 03:46:00,40.3,28.7,29.94,NNW,342,2.0,3.0,63,0.00,,---,0.00,VWS V14.00,2013-04-05 07:46:00,
2013-04-05 03:47:00,40.2,28.6,29.94,NNW,342,1.0,3.0,63,0.00,,---,0.00,VWS V14.00,2013-04-05 07:47:00,
2013-04-05 03:50:00,40.1,28.5,29.93,NNW,342,0.0,3.0,63,0.00,,---,0.00,VWS V14.00,2013-04-05 07:50:00,
2013-04-05 03:52:00,40.0,28.4,29.94,NNW,343,2.0,3.0,63,0.00,,---,0.00,VWS V14.00,2013-04-05 07:52:00,
2013-04-05 03:53:00,39.9,28.0,29.94,NNW,343,1.0,3.0,62,0.00,,---,0.00,VWS V14.00,2013-04-05 07:53:00,
2013-04-05 03:55:00,39.7,27.8,29.94,NNW,343,1.0,3.0,62,0.00,,---,0.00,VWS V14.00,2013-04-05 07:55:00,
2013-04-05 03:58:00,39.4,27.9,29.94,NNW,343,2.0,3.0,63,0.00,,---,0.00,VWS V14.00,2013-04-05 07:58:00,
2013-04-05 04:00:00,39.3,27.8,29.94,NNW,343,0.0,2.0,63,0.00,,---,0.00,VWS V14.00,2013-04-05 08:00:00,
2013-04-05 04:01:00,39.2,28.1,29.94,NNW,343,0.0,2.0,64,0.00,,---,0.00,VWS V14.00,2013-04-05 08:01:00,
2013-04-05 04:03:00,39.2,28.1,29.95,NNW,343,0.0,2.0,64,0.00,,---,0.00,VWS V14.00,2013-04-05 08:03:00,
2013-04-05 04:07:00,39.3,29.3,29.95,NNW,344,2.0,3.0,67,0.00,,---,0.00,VWS V14.00,2013-04-05 08:07:00,
2013-04-05 04:09:00,39.5,29.8,29.95,NNW,344,1.0,3.0,68,0.00,,---,0.00,VWS V14.00,2013-04-05 08:09:00,
2013-04-05 04:10:00,39.4,29.4,29.95,NNW,344,1.0,3.0,67,0.00,,---,0.00,VWS V14.00,2013-04-05 08:10:00,
2013-04-05 04:13:00,39.3,28.9,29.95,NNW,344,0.0,3.0,66,0.00,,---,0.00,VWS V14.00,2013-04-05 08:13:00,
2013-04-05 04:15:00,39.1,28.7,29.95,NNW,345,2.0,4.0,66,0.00,,---,0.00,VWS V14.00,2013-04-05 08:15:00,
2013-04-05 04:17:00,39.0,29.0,29.96,NNW,346,0.0,4.0,67,0.00,,---,0.00,VWS V14.00,2013-04-05 08:17:00,
2013-04-05 04:19:00,38.9,28.5,29.96,NNW,346,0.0,4.0,66,0.00,,---,0.00,VWS V14.00,2013-04-05 08:19:00,
2013-04-05 04:24:00,38.6,28.6,29.96,NNW,346,1.0,4.0,67,0.00,,---,0.00,VWS V14.00,2013-04-05 08:24:00,
2013-04-05 04:25:00,38.6,28.6,29.96,NNW,346,2.0,4.0,67,0.00,,---,0.00,VWS V14.00,2013-04-05 08:25:00,
2013-04-05 04:26:00,38.5,28.9,29.96,NNW,346,0.0,4.0,68,0.00,,---,0.00,VWS V14.00,2013-04-05 08:26:00,
2013-04-05 04:30:00,38.7,29.4,29.96,North,360,4.0,4.0,69,0.00,,---,0.00,VWS V14.00,2013-04-05 08:30:00,
2013-04-05 04:31:00,38.8,29.9,29.96,NNE,13,2.0,4.0,70,0.00,,---,0.00,VWS V14.00,2013-04-05 08:31:00,
2013-04-05 04:33:00,39.1,30.5,29.96,NNE,25,1.0,5.0,71,0.00,,---,0.00,VWS V14.00,2013-04-05 08:33:00,
2013-04-05 04:34:00,39.1,30.5,29.96,NNE,24,3.0,5.0,71,0.00,,---,0.00,VWS V14.00,2013-04-05 08:34:00,
2013-04-05 04:36:00,39.2,30.6,29.96,NNE,26,3.0,5.0,71,0.00,,---,0.00,VWS V14.00,2013-04-05 08:36:00,
2013-04-05 04:39:00,39.2,30.6,29.96,NNE,25,1.0,5.0,71,0.00,,---,0.00,VWS V14.00,2013-04-05 08:39:00,
2013-04-05 04:40:00,39.2,30.6,29.96,NNE,26,3.0,5.0,71,0.00,,---,0.00,VWS V14.00,2013-04-05 08:40:00,
2013-04-05 04:42:00,39.3,31.0,29.96,NNE,30,2.0,5.0,72,0.00,,---,0.00,VWS V14.00,2013-04-05 08:42:00,
2013-04-05 04:44:00,39.2,30.6,29.97,NNE,19,3.0,5.0,71,0.00,,---,0.00,VWS V14.00,2013-04-05 08:44:00,
2013-04-05 04:45:00,39.2,30.6,29.97,NNE,21,2.0,5.0,71,0.00,,---,0.00,VWS V14.00,2013-04-05 08:45:00,
2013-04-05 04:47:00,39.2,31.0,29.97,NNE,24,2.0,5.0,72,0.00,,---,0.00,VWS V14.00,2013-04-05 08:47:00,
2013-04-05 04:49:00,39.1,30.9,29.97,NE,34,4.0,5.0,72,0.00,,---,0.00,VWS V14.00,2013-04-05 08:49:00,
2013-04-05 04:50:00,39.1,30.9,29.97,NE,34,1.0,5.0,72,0.00,,---,0.00,VWS V14.00,2013-04-05 08:50:00,
2013-04-05 04:51:00,39.1,30.9,29.97,NE,40,1.0,5.0,72,0.00,,---,0.00,VWS V14.00,2013-04-05 08:51:00,
2013-04-05 04:53:00,39.1,31.2,29.97,NE,37,3.0,5.0,73,0.00,,---,0.00,VWS V14.00,2013-04-05 08:53:00,
2013-04-05 04:55:00,39.1,31.2,29.97,NE,38,1.0,5.0,73,0.00,,---,0.00,VWS V14.00,2013-04-05 08:55:00,
2013-04-05 04:57:00,39.0,31.1,29.97,NE,42,2.0,5.0,73,0.00,,---,0.00,VWS V14.00,2013-04-05 08:57:00,
2013-04-05 05:00:00,39.1,31.5,29.97,ENE,63,4.0,7.0,74,0.00,,---,0.00,VWS V14.00,2013-04-05 09:00:00,
2013-04-05 05:02:00,39.2,31.6,29.97,ENE,61,3.0,7.0,74,0.00,,---,0.00,VWS V14.00,2013-04-05 09:02:00,
2013-04-05 05:04:00,39.3,31.7,29.98,NE,50,6.0,7.0,74,0.00,,---,0.00,VWS V14.00,2013-04-05 09:04:00,
2013-04-05 05:05:00,39.3,31.7,29.98,ENE,71,4.0,7.0,74,0.00,,---,0.00,VWS V14.00,2013-04-05 09:05:00,
2013-04-05 05:07:00,39.4,31.5,29.98,ENE,68,4.0,7.0,73,0.00,,---,0.00,VWS V14.00,2013-04-05 09:07:00,
2013-04-05 05:09:00,39.5,31.2,29.98,ENE,75,3.0,7.0,72,0.00,,---,0.00,VWS V14.00,2013-04-05 09:09:00,
2013-04-05 05:11:00,39.6,31.3,29.98,ENE,60,7.0,7.0,72,0.00,,---,0.00,VWS V14.00,2013-04-05 09:11:00,
2013-04-05 05:12:00,39.6,31.3,29.98,ENE,59,1.0,7.0,72,0.00,,---,0.00,VWS V14.00,2013-04-05 09:12:00,
2013-04-05 05:14:00,39.6,31.7,29.99,ENE,69,5.0,7.0,73,0.00,,---,0.00,VWS V14.00,2013-04-05 09:14:00,
2013-04-05 05:15:00,39.6,31.3,29.99,NE,54,2.0,7.0,72,0.00,,---,0.00,VWS V14.00,2013-04-05 09:15:00,
2013-04-05 05:16:00,39.7,31.8,29.99,NE,34,2.0,7.0,73,0.00,,---,0.00,VWS V14.00,2013-04-05 09:16:00,
2013-04-05 05:19:00,39.7,32.1,29.99,NE,55,4.0,7.0,74,0.00,,---,0.00,VWS V14.00,2013-04-05 09:19:00,
2013-04-05 05:20:00,39.6,31.7,29.99,ENE,72,5.0,11.0,73,0.00,,---,0.00,VWS V14.00,2013-04-05 09:20:00,
2013-04-05 05:22:00,39.5,31.2,29.99,NE,43,3.0,11.0,72,0.00,,---,0.00,VWS V14.00,2013-04-05 09:22:00,
2013-04-05 05:25:00,39.5,31.2,29.99,ENE,64,4.0,11.0,72,0.00,,---,0.00,VWS V14.00,2013-04-05 09:25:00,
2013-04-05 05:26:00,39.5,31.2,30.00,NE,55,3.0,11.0,72,0.00,,---,0.00,VWS V14.00,2013-04-05 09:26:00,
2013-04-05 05:27:00,39.6,31.7,30.00,ENE,78,5.0,11.0,73,0.00,,---,0.00,VWS V14.00,2013-04-05 09:27:00,
2013-04-05 05:28:00,39.5,31.6,30.00,ENE,74,5.0,11.0,73,0.00,,---,0.00,VWS V14.00,2013-04-05 09:28:00,
2013-04-05 05:32:00,39.3,31.0,30.00,NE,55,2.0,9.0,72,0.00,,---,0.00,VWS V14.00,2013-04-05 09:32:00,
2013-04-05 05:33:00,39.3,31.0,30.00,NE,45,6.0,9.0,72,0.00,,---,0.00,VWS V14.00,2013-04-05 09:33:00,
2013-04-05 05:34:00,39.3,31.0,30.00,NE,36,11.0,16.0,72,0.00,,---,0.00,VWS V14.00,2013-04-05 09:34:00,
2013-04-05 05:35:00,39.3,31.4,30.00,East,79,5.0,16.0,73,0.00,,---,0.00,VWS V14.00,2013-04-05 09:35:00,
2013-04-05 05:38:00,39.0,30.1,30.00,NE,44,5.0,16.0,70,0.00,,---,0.00,VWS V14.00,2013-04-05 09:38:00,
2013-04-05 05:39:00,39.0,30.4,30.01,ENE,59,4.0,16.0,71,0.00,,---,0.00,VWS V14.00,2013-04-05 09:39:00,
2013-04-05 05:40:00,38.9,30.3,30.01,ENE,69,13.0,16.0,71,0.00,,---,0.00,VWS V14.00,2013-04-05 09:40:00,
2013-04-05 05:41:00,38.9,30.3,30.01,NE,36,9.0,16.0,71,0.00,,---,0.00,VWS V14.00,2013-04-05 09:41:00,
2013-04-05 05:44:00,38.9,30.7,30.01,NE,51,6.0,16.0,72,0.00,,---,0.00,VWS V14.00,2013-04-05 09:44:00,
2013-04-05 05:45:00,38.9,30.7,30.01,NE,53,3.0,16.0,72,0.00,,---,0.00,VWS V14.00,2013-04-05 09:45:00,
2013-04-05 05:46:00,38.9,31.0,30.01,ENE,67,3.0,16.0,73,0.00,,---,0.00,VWS V14.00,2013-04-05 09:46:00,
2013-04-05 05:48:00,38.8,30.6,30.01,ENE,74,3.0,16.0,72,0.00,,---,0.00,VWS V14.00,2013-04-05 09:48:00,
2013-04-05 05:49:00,38.8,30.6,30.01,ENE,61,3.0,16.0,72,0.00,,---,0.00,VWS V14.00,2013-04-05 09:49:00,
2013-04-05 05:51:00,38.8,30.9,30.01,ENE,65,3.0,16.0,73,0.00,,---,0.00,VWS V14.00,2013-04-05 09:51:00,
2013-04-05 05:52:00,38.8,30.9,30.01,ENE,76,10.0,16.0,73,0.00,,---,0.00,VWS V14.00,2013-04-05 09:52:00,
2013-04-05 05:55:00,38.7,30.8,30.02,East,86,5.0,16.0,73,0.00,,---,0.00,VWS V14.00,2013-04-05 09:55:00,
2013-04-05 05:57:00,38.6,30.4,30.02,ENE,74,5.0,16.0,72,0.00,,---,0.00,VWS V14.00,2013-04-05 09:57:00,
2013-04-05 05:59:00,38.5,30.3,30.02,NE,48,8.0,13.0,72,0.00,,---,0.00,VWS V14.00,2013-04-05 09:59:00,
2013-04-05 06:01:00,38.6,30.7,30.02,NE,44,6.0,13.0,73,0.00,,---,0.00,VWS V14.00,2013-04-05 10:01:00,
2013-04-05 06:03:00,38.5,30.3,30.02,NE,54,4.0,13.0,72,0.00,,---,0.00,VWS V14.00,2013-04-05 10:03:00,
2013-04-05 06:05:00,38.4,30.5,30.02,NE,49,8.0,13.0,73,0.00,,---,0.00,VWS V14.00,2013-04-05 10:05:00,
2013-04-05 06:06:00,38.4,30.5,30.02,ENE,60,10.0,13.0,73,0.00,,---,0.00,VWS V14.00,2013-04-05 10:06:00,
2013-04-05 06:09:00,38.3,30.4,30.03,NE,48,6.0,13.0,73,0.00,,---,0.00,VWS V14.00,2013-04-05 10:09:00,
2013-04-05 06:10:00,38.3,30.4,30.03,ENE,72,5.0,13.0,73,0.00,,---,0.00,VWS V14.00,2013-04-05 10:10:00,
2013-04-05 06:11:00,38.3,30.4,30.03,ENE,60,6.0,13.0,73,0.00,,---,0.00,VWS V14.00,2013-04-05 10:11:00,
2013-04-05 06:15:00,38.1,30.2,30.03,ENE,69,2.0,13.0,73,0.00,,---,0.00,VWS V14.00,2013-04-05 10:15:00,
2013-04-05 06:16:00,38.0,30.1,30.03,ENE,67,2.0,13.0,73,0.00,,---,0.00,VWS V14.00,2013-04-05 10:16:00,
2013-04-05 06:17:00,38.0,30.1,30.03,ENE,61,1.0,13.0,73,0.00,,---,0.00,VWS V14.00,2013-04-05 10:17:00,
2013-04-05 06:21:00,37.9,30.4,30.03,NE,55,3.0,13.0,74,0.00,,---,0.00,VWS V14.00,2013-04-05 10:21:00,
2013-04-05 06:22:00,37.9,30.4,30.03,ENE,75,3.0,13.0,74,0.00,,---,0.00,VWS V14.00,2013-04-05 10:22:00,
2013-04-05 06:24:00,37.9,30.4,30.03,NNE,26,2.0,13.0,74,0.00,,---,0.00,VWS V14.00,2013-04-05 10:24:00,
2013-04-05 06:27:00,37.8,30.3,30.03,ENE,71,1.0,13.0,74,0.00,,---,0.00,VWS V14.00,2013-04-05 10:27:00,
2013-04-05 06:28:00,37.8,30.3,30.03,ENE,69,2.0,13.0,74,0.00,,---,0.00,VWS V14.00,2013-04-05 10:28:00,
2013-04-05 06:32:00,37.8,30.3,30.04,East,82,5.0,11.0,74,0.00,,---,0.00,VWS V14.00,2013-04-05 10:32:00,
2013-04-05 06:34:00,37.8,30.3,30.04,ENE,57,1.0,11.0,74,0.00,,---,0.00,VWS V14.00,2013-04-05 10:34:00,
2013-04-05 06:35:00,37.8,30.3,30.04,NNE,27,10.0,11.0,74,0.00,,---,0.00,VWS V14.00,2013-04-05 10:35:00,
2013-04-05 06:36:00,37.8,30.6,30.04,NE,56,4.0,11.0,75,0.00,,---,0.00,VWS V14.00,2013-04-05 10:36:00,
2013-04-05 06:37:00,37.8,30.3,30.04,ENE,64,8.0,11.0,74,0.00,,---,0.00,VWS V14.00,2013-04-05 10:37:00,
2013-04-05 06:39:00,37.7,30.2,30.05,ENE,64,6.0,11.0,74,0.00,,---,0.00,VWS V14.00,2013-04-05 10:39:00,
2013-04-05 06:41:00,37.7,30.2,30.05,NE,55,5.0,11.0,74,0.00,,---,0.00,VWS V14.00,2013-04-05 10:41:00,
2013-04-05 06:42:00,37.7,30.2,30.05,NE,52,0.0,11.0,74,0.00,,---,0.00,VWS V14.00,2013-04-05 10:42:00,
2013-04-05 06:44:00,37.7,30.5,30.05,ENE,69,3.0,11.0,75,0.00,,---,0.00,VWS V14.00,2013-04-05 10:44:00,
2013-04-05 06:45:00,37.7,30.5,30.05,ENE,71,2.0,11.0,75,0.00,,---,0.00,VWS V14.00,2013-04-05 10:45:00,
2013-04-05 06:47:00,37.5,30.0,30.05,ENE,72,3.0,11.0,74,0.00,,---,0.00,VWS V14.00,2013-04-05 10:47:00,
2013-04-05 06:49:00,37.4,29.9,30.05,ENE,77,1.0,11.0,74,0.00,,---,0.00,VWS V14.00,2013-04-05 10:49:00,
2013-04-05 06:50:00,37.4,29.9,30.05,ENE,77,1.0,11.0,74,0.00,,---,0.00,VWS V14.00,2013-04-05 10:50:00,
2013-04-05 06:54:00,37.3,30.1,30.06,NE,52,4.0,11.0,75,0.00,,---,0.00,VWS V14.00,2013-04-05 10:54:00,
2013-04-05 06:55:00,37.3,30.1,30.06,NE,53,3.0,11.0,75,0.00,,---,0.00,VWS V14.00,2013-04-05 10:55:00,
2013-04-05 06:58:00,37.2,29.7,30.06,ENE,74,3.0,11.0,74,0.00,,---,0.00,VWS V14.00,2013-04-05 10:58:00,
2013-04-05 07:00:00,37.1,29.6,30.06,East,80,3.0,5.0,74,0.00,,---,0.00,VWS V14.00,2013-04-05 11:00:00,
2013-04-05 07:02:00,37.0,29.2,30.06,ENE,67,4.0,5.0,73,0.00,,---,0.00,VWS V14.00,2013-04-05 11:02:00,
2013-04-05 07:04:00,37.0,29.5,30.06,ENE,67,1.0,5.0,74,0.00,,---,0.00,VWS V14.00,2013-04-05 11:04:00,
2013-04-05 07:06:00,37.0,29.2,30.06,ENE,71,2.0,5.0,73,0.00,,---,0.00,VWS V14.00,2013-04-05 11:06:00,
2013-04-05 07:09:00,37.0,29.8,30.06,NE,56,1.0,6.0,75,0.00,,---,0.00,VWS V14.00,2013-04-05 11:09:00,
2013-04-05 07:10:00,37.0,29.5,30.07,ENE,59,5.0,6.0,74,0.00,,---,0.00,VWS V14.00,2013-04-05 11:10:00,
2013-04-05 07:13:00,36.9,29.1,30.07,ENE,65,1.0,6.0,73,0.00,,---,0.00,VWS V14.00,2013-04-05 11:13:00,
2013-04-05 07:14:00,36.9,29.4,30.07,NE,51,1.0,6.0,74,0.00,,---,0.00,VWS V14.00,2013-04-05 11:14:00,
2013-04-05 07:15:00,36.9,29.4,30.07,NE,53,4.0,6.0,74,0.00,,---,0.00,VWS V14.00,2013-04-05 11:15:00,
2013-04-05 07:16:00,36.9,29.4,30.07,ENE,71,2.0,6.0,74,0.00,,---,0.00,VWS V14.00,2013-04-05 11:16:00,
2013-04-05 07:19:00,37.0,29.8,30.07,NE,53,3.0,6.0,75,0.00,,---,0.00,VWS V14.00,2013-04-05 11:19:00,
2013-04-05 07:20:00,37.0,29.8,30.07,NE,49,1.0,6.0,75,0.00,,---,0.00,VWS V14.00,2013-04-05 11:20:00,
2013-04-05 07:22:00,37.0,29.8,30.07,NE,52,2.0,6.0,75,0.00,,---,0.00,VWS V14.00,2013-04-05 11:22:00,
2013-04-05 07:27:00,36.9,29.7,30.07,NE,51,3.0,6.0,75,0.00,,---,0.00,VWS V14.00,2013-04-05 11:27:00,
2013-04-05 07:28:00,36.9,29.7,30.07,ENE,59,4.0,6.0,75,0.00,,---,0.00,VWS V14.00,2013-04-05 11:28:00,
2013-04-05 07:32:00,36.7,29.5,30.08,ENE,60,0.0,6.0,75,0.00,,---,0.00,VWS V14.00,2013-04-05 11:32:00,
2013-04-05 07:33:00,36.7,29.5,30.08,ENE,61,1.0,6.0,75,0.00,,---,0.00,VWS V14.00,2013-04-05 11:33:00,
2013-04-05 07:34:00,36.7,29.5,30.08,ENE,61,2.0,6.0,75,0.00,,---,0.00,VWS V14.00,2013-04-05 11:34:00,
2013-04-05 07:38:00,36.7,29.2,30.08,NE,56,3.0,6.0,74,0.00,,---,0.00,VWS V14.00,2013-04-05 11:38:00,
2013-04-05 07:39:00,36.7,29.2,30.08,ENE,64,4.0,6.0,74,0.00,,---,0.00,VWS V14.00,2013-04-05 11:39:00,
2013-04-05 07:40:00,36.7,29.2,30.08,ENE,65,1.0,6.0,74,0.00,,---,0.00,VWS V14.00,2013-04-05 11:40:00,
2013-04-05 07:44:00,36.6,28.8,30.09,NE,54,3.0,6.0,73,0.00,,---,0.00,VWS V14.00,2013-04-05 11:44:00,
2013-04-05 07:45:00,36.6,28.8,30.09,NE,51,6.0,7.0,73,0.00,,---,0.00,VWS V14.00,2013-04-05 11:45:00,
2013-04-05 07:46:00,36.6,28.8,30.09,ENE,69,4.0,7.0,73,0.00,,---,0.00,VWS V14.00,2013-04-05 11:46:00,
2013-04-05 07:47:00,36.6,28.4,30.09,ENE,64,4.0,7.0,72,0.00,,---,0.00,VWS V14.00,2013-04-05 11:47:00,
2013-04-05 07:50:00,36.6,28.4,30.09,ENE,63,1.0,7.0,72,0.00,,---,0.00,VWS V14.00,2013-04-05 11:50:00,
2013-04-05 07:51:00,36.7,28.5,30.09,ENE,61,1.0,7.0,72,0.00,,---,0.00,VWS V14.00,2013-04-05 11:51:00,
2013-04-05 07:52:00,36.7,28.5,30.09,NE,48,1.0,7.0,72,0.00,,---,0.00,VWS V14.00,2013-04-05 11:52:00,
2013-04-05 07:56:00,36.8,29.0,30.10,ENE,60,0.0,7.0,73,0.00,,---,0.00,VWS V14.00,2013-04-05 11:56:00,
2013-04-05 07:57:00,36.9,29.1,30.10,ENE,61,0.0,7.0,73,0.00,,---,0.00,VWS V14.00,2013-04-05 11:57:00,
2013-04-05 07:58:00,36.9,29.1,30.10,NE,48,3.0,7.0,73,0.00,,---,0.00,VWS V14.00,2013-04-05 11:58:00,
2013-04-05 08:00:00,37.0,29.5,30.10,NE,52,3.0,5.0,74,0.00,,---,0.00,VWS V14.00,2013-04-05 12:00:00,
2013-04-05 08:02:00,37.1,29.6,30.10,NE,53,2.0,5.0,74,0.00,,---,0.00,VWS V14.00,2013-04-05 12:02:00,
2013-04-05 08:03:00,37.1,29.3,30.10,NE,53,1.0,5.0,73,0.00,,---,0.00,VWS V14.00,2013-04-05 12:03:00,
2013-04-05 08:05:00,37.1,29.3,30.10,NE,38,3.0,5.0,73,0.00,,---,0.00,VWS V14.00,2013-04-05 12:05:00,
2013-04-05 08:07:00,37.2,29.0,30.10,NE,53,2.0,5.0,72,0.00,,---,0.00,VWS V14.00,2013-04-05 12:07:00,
2013-04-05 08:09:00,37.3,29.5,30.10,NE,44,2.0,5.0,73,0.00,,---,0.00,VWS V14.00,2013-04-05 12:09:00,
2013-04-05 08:10:00,37.4,29.5,30.10,ENE,60,6.0,6.0,73,0.00,,---,0.00,VWS V14.00,2013-04-05 12:10:00,
2013-04-05 08:12:00,37.3,29.1,30.10,NE,55,2.0,6.0,72,0.00,,---,0.00,VWS V14.00,2013-04-05 12:12:00,
2013-04-05 08:15:00,37.4,29.2,30.11,NE,54,1.0,6.0,72,0.00,,---,0.00,VWS V14.00,2013-04-05 12:15:00,
2013-04-05 08:17:00,37.6,29.4,30.10,NE,51,4.0,6.0,72,0.00,,---,0.00,VWS V14.00,2013-04-05 12:17:00,
2013-04-05 08:18:00,37.5,29.3,30.10,NE,50,2.0,6.0,72,0.00,,---,0.00,VWS V14.00,2013-04-05 12:18:00,
2013-04-05 08:23:00,37.7,29.5,30.10,NE,38,2.0,6.0,72,0.00,,---,0.00,VWS V14.00,2013-04-05 12:23:00,
2013-04-05 08:24:00,37.7,29.2,30.10,NE,38,2.0,6.0,71,0.00,,---,0.00,VWS V14.00,2013-04-05 12:24:00,
2013-04-05 08:25:00,37.7,29.2,30.10,NE,55,3.0,6.0,71,0.00,,---,0.00,VWS V14.00,2013-04-05 12:25:00,
2013-04-05 08:27:00,37.8,29.3,30.11,NNE,29,6.0,6.0,71,0.00,,---,0.00,VWS V14.00,2013-04-05 12:27:00,
2013-04-05 08:29:00,38.0,29.5,30.11,NE,34,3.0,5.0,71,0.00,,---,0.00,VWS V14.00,2013-04-05 12:29:00,
2013-04-05 08:31:00,38.0,29.5,30.11,NE,48,1.0,9.0,71,0.00,,---,0.00,VWS V14.00,2013-04-05 12:31:00,
2013-04-05 08:32:00,38.0,29.5,30.11,NE,51,2.0,9.0,71,0.00,,---,0.00,VWS V14.00,2013-04-05 12:32:00,
2013-04-05 08:34:00,38.0,29.1,30.11,NE,44,1.0,9.0,70,0.00,,---,0.00,VWS V14.00,2013-04-05 12:34:00,
2013-04-05 08:37:00,38.1,29.2,30.11,NE,48,0.0,9.0,70,0.00,,---,0.00,VWS V14.00,2013-04-05 12:37:00,
2013-04-05 08:40:00,38.3,28.7,30.11,NE,38,2.0,9.0,68,0.00,,---,0.00,VWS V14.00,2013-04-05 12:40:00,
2013-04-05 08:42:00,38.3,28.3,30.11,ENE,63,3.0,9.0,67,0.00,,---,0.00,VWS V14.00,2013-04-05 12:42:00,
2013-04-05 08:45:00,38.6,29.0,30.11,NE,41,5.0,9.0,68,0.00,,---,0.00,VWS V14.00,2013-04-05 12:45:00,
2013-04-05 08:46:00,38.6,29.3,30.11,NE,41,2.0,9.0,69,0.00,,---,0.00,VWS V14.00,2013-04-05 12:46:00,
2013-04-05 08:47:00,38.6,29.3,30.11,ENE,78,4.0,9.0,69,0.00,,---,0.00,VWS V14.00,2013-04-05 12:47:00,
2013-04-05 08:48:00,38.7,28.7,30.11,NE,46,3.0,9.0,67,0.00,,---,0.00,VWS V14.00,2013-04-05 12:48:00,
2013-04-05 08:51:00,38.7,28.0,30.12,ENE,74,1.0,9.0,65,0.00,,---,0.00,VWS V14.00,2013-04-05 12:51:00,
2013-04-05 08:52:00,38.7,28.0,30.12,NE,36,6.0,9.0,65,0.00,,---,0.00,VWS V14.00,2013-04-05 12:52:00,
2013-04-05 08:55:00,38.8,28.8,30.12,East,88,4.0,9.0,67,0.00,,---,0.00,VWS V14.00,2013-04-05 12:55:00,
2013-04-05 08:58:00,38.7,28.3,30.12,NE,48,6.0,12.0,66,0.00,,---,0.00,VWS V14.00,2013-04-05 12:58:00,
2013-04-05 08:59:00,38.7,28.3,30.12,NE,55,15.0,16.0,66,0.00,,---,0.00,VWS V14.00,2013-04-05 12:59:00,
2013-04-05 09:00:00,38.8,28.1,30.12,NE,40,12.0,16.0,65,0.00,,---,0.00,VWS V14.00,2013-04-05 13:00:00,
2013-04-05 09:03:00,38.9,28.5,30.12,ENE,69,3.0,16.0,66,0.00,,---,0.00,VWS V14.00,2013-04-05 13:03:00,
2013-04-05 09:05:00,38.9,27.4,30.12,ENE,72,6.0,16.0,63,0.00,,---,0.00,VWS V14.00,2013-04-05 13:05:00,
2013-04-05 09:06:00,38.9,27.0,30.12,ENE,68,6.0,16.0,62,0.00,,---,0.00,VWS V14.00,2013-04-05 13:06:00,
2013-04-05 09:10:00,39.1,27.2,30.12,ENE,69,5.0,16.0,62,0.00,,---,0.00,VWS V14.00,2013-04-05 13:10:00,
2013-04-05 09:12:00,39.5,28.0,30.12,ENE,67,5.0,16.0,63,0.00,,---,0.00,VWS V14.00,2013-04-05 13:12:00,
2013-04-05 09:13:00,39.4,27.5,30.12,ENE,64,4.0,16.0,62,0.00,,---,0.00,VWS V14.00,2013-04-05 13:13:00,
2013-04-05 09:16:00,39.3,26.6,30.12,East,84,6.0,16.0,60,0.00,,---,0.00,VWS V14.00,2013-04-05 13:16:00,
2013-04-05 09:18:00,39.2,26.5,30.12,ENE,62,6.0,16.0,60,0.00,,---,0.00,VWS V14.00,2013-04-05 13:18:00,
2013-04-05 09:21:00,39.2,26.5,30.13,ENE,71,5.0,16.0,60,0.00,,---,0.00,VWS V14.00,2013-04-05 13:21:00,
2013-04-05 09:22:00,39.3,27.0,30.13,NE,44,7.0,16.0,61,0.00,,---,0.00,VWS V14.00,2013-04-05 13:22:00,
2013-04-05 09:24:00,39.3,26.6,30.13,ENE,61,6.0,16.0,60,0.00,,---,0.00,VWS V14.00,2013-04-05 13:24:00,
2013-04-05 09:25:00,39.3,26.6,30.13,NNE,26,11.0,16.0,60,0.00,,---,0.00,VWS V14.00,2013-04-05 13:25:00,
2013-04-05 09:27:00,39.5,26.8,30.13,NE,50,5.0,16.0,60,0.00,,---,0.00,VWS V14.00,2013-04-05 13:27:00,
2013-04-05 09:28:00,39.5,26.8,30.13,NE,51,10.0,16.0,60,0.00,,---,0.00,VWS V14.00,2013-04-05 13:28:00,
2013-04-05 09:29:00,39.5,26.8,30.12,North,355,7.0,12.0,60,0.00,,---,0.00,VWS V14.00,2013-04-05 13:29:00,
2013-04-05 09:30:00,39.6,26.9,30.12,NE,55,9.0,12.0,60,0.00,,---,0.00,VWS V14.00,2013-04-05 13:30:00,
2013-04-05 09:32:00,39.5,26.8,30.12,ENE,63,6.0,13.0,60,0.00,,---,0.00,VWS V14.00,2013-04-05 13:32:00,
2013-04-05 09:35:00,39.3,25.8,30.12,ENE,58,5.0,16.0,58,0.00,,---,0.00,VWS V14.00,2013-04-05 13:35:00,
2013-04-05 09:36:00,39.3,25.8,30.12,ENE,71,6.0,16.0,58,0.00,,---,0.00,VWS V14.00,2013-04-05 13:36:00,
2013-04-05 09:37:00,39.3,25.8,30.12,ENE,64,5.0,16.0,58,0.00,,---,0.00,VWS V14.00,2013-04-05 13:37:00,
2013-04-05 09:41:00,39.3,25.4,30.12,East,81,5.0,16.0,57,0.00,,---,0.00,VWS V14.00,2013-04-05 13:41:00,
2013-04-05 09:43:00,39.4,25.5,30.12,ENE,61,5.0,16.0,57,0.00,,---,0.00,VWS V14.00,2013-04-05 13:43:00,
2013-04-05 09:44:00,39.6,26.1,30.12,ENE,72,10.0,16.0,58,0.00,,---,0.00,VWS V14.00,2013-04-05 13:44:00,
2013-04-05 09:50:00,39.8,25.8,30.12,NNE,30,8.0,16.0,57,0.00,,---,0.00,VWS V14.00,2013-04-05 13:50:00,
2013-04-05 09:51:00,39.9,25.9,30.13,ENE,60,9.0,16.0,57,0.00,,---,0.00,VWS V14.00,2013-04-05 13:51:00,
2013-04-05 09:55:00,40.2,25.3,30.13,ENE,69,8.0,16.0,55,0.00,,---,0.00,VWS V14.00,2013-04-05 13:55:00,
2013-04-05 09:56:00,40.2,25.3,30.13,NE,55,10.0,16.0,55,0.00,,---,0.00,VWS V14.00,2013-04-05 13:56:00,
2013-04-05 09:57:00,40.3,25.4,30.13,ENE,68,9.0,16.0,55,0.00,,---,0.00,VWS V14.00,2013-04-05 13:57:00,
2013-04-05 09:58:00,40.3,25.0,30.13,ENE,57,6.0,16.0,54,0.00,,---,0.00,VWS V14.00,2013-04-05 13:58:00,
2013-04-05 10:01:00,40.1,24.4,30.13,ENE,64,6.0,13.0,53,0.00,,---,0.00,VWS V14.00,2013-04-05 14:01:00,
2013-04-05 10:03:00,40.1,24.4,30.13,ENE,76,9.0,13.0,53,0.00,,---,0.00,VWS V14.00,2013-04-05 14:03:00,
2013-04-05 10:04:00,40.2,24.5,30.13,ENE,76,4.0,13.0,53,0.00,,---,0.00,VWS V14.00,2013-04-05 14:04:00,
2013-04-05 10:09:00,40.1,23.9,30.13,ENE,63,6.0,13.0,52,0.00,,---,0.00,VWS V14.00,2013-04-05 14:09:00,
2013-04-05 10:10:00,40.1,23.9,30.12,East,83,11.0,13.0,52,0.00,,---,0.00,VWS V14.00,2013-04-05 14:10:00,
2013-04-05 10:13:00,40.2,24.0,30.13,ENE,67,4.0,13.0,52,0.00,,---,0.00,VWS V14.00,2013-04-05 14:13:00,
2013-04-05 10:15:00,40.5,24.3,30.13,East,80,5.0,13.0,52,0.00,,---,0.00,VWS V14.00,2013-04-05 14:15:00,
2013-04-05 10:17:00,40.7,24.9,30.13,ENE,78,7.0,13.0,53,0.00,,---,0.00,VWS V14.00,2013-04-05 14:17:00,
2013-04-05 10:21:00,41.1,24.8,30.13,ENE,68,3.0,13.0,52,0.00,,---,0.00,VWS V14.00,2013-04-05 14:21:00,
2013-04-05 10:23:00,41.3,25.0,30.13,East,84,8.0,13.0,52,0.00,,---,0.00,VWS V14.00,2013-04-05 14:23:00,
2013-04-05 10:26:00,41.4,24.6,30.13,ENE,57,4.0,13.0,51,0.00,,---,0.00,VWS V14.00,2013-04-05 14:26:00,
2013-04-05 10:27:00,41.6,25.8,30.13,NNE,29,1.0,13.0,53,0.00,,---,0.00,VWS V14.00,2013-04-05 14:27:00,
2013-04-05 10:30:00,41.5,24.7,30.13,ENE,70,5.0,7.0,51,0.00,,---,0.00,VWS V14.00,2013-04-05 14:30:00,
2013-04-05 10:33:00,41.5,25.2,30.14,NE,36,6.0,15.0,52,0.00,,---,0.00,VWS V14.00,2013-04-05 14:33:00,
2013-04-05 10:37:00,41.8,25.0,30.14,ENE,74,2.0,15.0,51,0.00,,---,0.00,VWS V14.00,2013-04-05 14:37:00,
2013-04-05 10:38:00,41.9,25.1,30.14,ENE,65,5.0,15.0,51,0.00,,---,0.00,VWS V14.00,2013-04-05 14:38:00,
2013-04-05 10:41:00,42.5,26.6,30.14,NNE,15,5.0,15.0,53,0.00,,---,0.00,VWS V14.00,2013-04-05 14:41:00,
2013-04-05 10:42:00,42.7,24.9,30.14,NNE,28,15.0,16.0,49,0.00,,---,0.00,VWS V14.00,2013-04-05 14:42:00,
2013-04-05 10:46:00,42.6,27.1,30.14,NNE,19,4.0,16.0,54,0.00,,---,0.00,VWS V14.00,2013-04-05 14:46:00,
2013-04-05 10:48:00,42.7,25.4,30.14,North,5,4.0,16.0,50,0.00,,---,0.00,VWS V14.00,2013-04-05 14:48:00,
2013-04-05 10:52:00,42.7,26.3,30.14,NNE,28,12.0,16.0,52,0.00,,---,0.00,VWS V14.00,2013-04-05 14:52:00,
2013-04-05 10:53:00,42.7,25.9,30.14,NE,44,10.0,16.0,51,0.00,,---,0.00,VWS V14.00,2013-04-05 14:53:00,
2013-04-05 10:55:00,42.7,26.3,30.14,NNE,28,8.0,16.0,52,0.00,,---,0.00,VWS V14.00,2013-04-05 14:55:00,
2013-04-05 10:58:00,42.6,23.8,30.14,NE,36,7.0,7.0,47,0.00,,---,0.00,VWS V14.00,2013-04-05 14:58:00,
2013-04-05 11:02:00,42.8,25.5,30.14,NE,47,7.0,15.0,50,0.00,,---,0.00,VWS V14.00,2013-04-05 15:02:00,
2013-04-05 11:03:00,42.8,25.9,30.14,NNE,21,11.0,15.0,51,0.00,,---,0.00,VWS V14.00,2013-04-05 15:03:00,
2013-04-05 11:05:00,42.8,25.5,30.14,NNW,348,5.0,15.0,50,0.00,,---,0.00,VWS V14.00,2013-04-05 15:05:00,
2013-04-05 11:08:00,42.9,24.1,30.14,ENE,57,4.0,15.0,47,0.00,,---,0.00,VWS V14.00,2013-04-05 15:08:00,
2013-04-05 11:09:00,42.8,24.0,30.14,NNE,32,3.0,15.0,47,0.00,,---,0.00,VWS V14.00,2013-04-05 15:09:00,
2013-04-05 11:12:00,42.8,23.0,30.14,East,84,2.0,15.0,45,0.00,,---,0.00,VWS V14.00,2013-04-05 15:12:00,
2013-04-05 11:13:00,42.7,22.3,30.14,ENE,78,1.0,15.0,44,0.00,,---,0.00,VWS V14.00,2013-04-05 15:13:00,
2013-04-05 11:14:00,42.7,22.9,30.14,ENE,78,3.0,15.0,45,0.00,,---,0.00,VWS V14.00,2013-04-05 15:14:00,
2013-04-05 11:17:00,43.3,24.4,30.14,ENE,72,4.0,15.0,47,0.00,,---,0.00,VWS V14.00,2013-04-05 15:17:00,
2013-04-05 11:18:00,43.3,23.4,30.14,ENE,69,6.0,15.0,45,0.00,,---,0.00,VWS V14.00,2013-04-05 15:18:00,
2013-04-05 11:19:00,43.3,23.4,30.15,ENE,59,6.0,15.0,45,0.00,,---,0.00,VWS V14.00,2013-04-05 15:19:00,
2013-04-05 11:22:00,43.6,24.2,30.15,ENE,61,3.0,15.0,46,0.00,,---,0.00,VWS V14.00,2013-04-05 15:22:00,
2013-04-05 11:24:00,43.7,23.2,30.15,ENE,78,5.0,15.0,44,0.00,,---,0.00,VWS V14.00,2013-04-05 15:24:00,
2013-04-05 11:28:00,43.8,22.2,30.15,North,355,9.0,16.0,42,0.00,,---,0.00,VWS V14.00,2013-04-05 15:28:00,
2013-04-05 11:29:00,43.8,22.2,30.15,NNE,24,5.0,9.0,42,0.00,,---,0.00,VWS V14.00,2013-04-05 15:29:00,
2013-04-05 11:30:00,43.7,23.2,30.15,NNE,18,9.0,10.0,44,0.00,,---,0.00,VWS V14.00,2013-04-05 15:30:00,
2013-04-05 11:34:00,44.1,23.6,30.15,NE,39,6.0,12.0,44,0.00,,---,0.00,VWS V14.00,2013-04-05 15:34:00,
2013-04-05 11:35:00,44.0,23.5,30.15,NNW,348,5.0,12.0,44,0.00,,---,0.00,VWS V14.00,2013-04-05 15:35:00,
2013-04-05 11:37:00,44.0,22.4,30.14,NNE,32,9.0,12.0,42,0.00,,---,0.00,VWS V14.00,2013-04-05 15:37:00,
2013-04-05 11:40:00,44.0,23.0,30.15,ENE,70,4.0,12.0,43,0.00,,---,0.00,VWS V14.00,2013-04-05 15:40:00,
2013-04-05 11:41:00,44.1,23.6,30.15,ENE,66,5.0,12.0,44,0.00,,---,0.00,VWS V14.00,2013-04-05 15:41:00,
2013-04-05 11:42:00,44.0,23.0,30.14,ENE,76,3.0,13.0,43,0.00,,---,0.00,VWS V14.00,2013-04-05 15:42:00,
2013-04-05 11:45:00,44.3,25.4,30.14,NE,53,11.0,13.0,47,0.00,,---,0.00,VWS V14.00,2013-04-05 15:45:00,
2013-04-05 11:46:00,44.5,25.0,30.14,ENE,61,12.0,13.0,46,0.00,,---,0.00,VWS V14.00,2013-04-05 15:46:00,
2013-04-05 11:47:00,44.5,24.0,30.14,ENE,63,3.0,13.0,44,0.00,,---,0.00,VWS V14.00,2013-04-05 15:47:00,
2013-04-05 11:48:00,44.3,23.2,30.14,ENE,71,4.0,13.0,43,0.00,,---,0.00,VWS V14.00,2013-04-05 15:48:00,
2013-04-05 11:51:00,44.2,23.1,30.14,ENE,67,2.0,13.0,43,0.00,,---,0.00,VWS V14.00,2013-04-05 15:51:00,
2013-04-05 11:52:00,44.2,22.6,30.14,ENE,65,5.0,13.0,42,0.00,,---,0.00,VWS V14.00,2013-04-05 15:52:00,
2013-04-05 11:53:00,44.4,23.3,30.14,North,9,3.0,13.0,43,0.00,,---,0.00,VWS V14.00,2013-04-05 15:53:00,
2013-04-05 11:54:00,44.6,22.9,30.14,North,355,14.0,16.0,42,0.00,,---,0.00,VWS V14.00,2013-04-05 15:54:00,
2013-04-05 11:56:00,44.5,22.3,30.14,NNE,20,13.0,16.0,41,0.00,,---,0.00,VWS V14.00,2013-04-05 15:56:00,
2013-04-05 11:58:00,44.6,21.8,30.14,North,360,11.0,16.0,40,0.00,,---,0.00,VWS V14.00,2013-04-05 15:58:00,
2013-04-05 11:59:00,44.5,21.1,30.14,NE,46,6.0,15.0,39,0.00,,---,0.00,VWS V14.00,2013-04-05 15:59:00,
2013-04-05 12:01:00,44.6,21.2,30.15,North,360,12.0,15.0,39,0.00,,---,0.00,VWS V14.00,2013-04-05 16:01:00,
2013-04-05 12:03:00,44.5,21.1,30.15,North,10,4.0,15.0,39,0.00,,---,0.00,VWS V14.00,2013-04-05 16:03:00,
2013-04-05 12:05:00,44.5,21.1,30.15,North,350,11.0,15.0,39,0.00,,---,0.00,VWS V14.00,2013-04-05 16:05:00,
2013-04-05 12:07:00,44.6,22.4,30.15,NE,49,8.0,15.0,41,0.00,,---,0.00,VWS V14.00,2013-04-05 16:07:00,
2013-04-05 12:09:00,44.7,24.1,30.15,NNW,339,3.0,15.0,44,0.00,,---,0.00,VWS V14.00,2013-04-05 16:09:00,
2013-04-05 12:14:00,44.7,21.9,30.15,NNE,16,8.0,17.0,40,0.00,,---,0.00,VWS V14.00,2013-04-05 16:14:00,
2013-04-05 12:15:00,44.7,21.9,30.14,NE,37,12.0,17.0,40,0.00,,---,0.00,VWS V14.00,2013-04-05 16:15:00,
2013-04-05 12:16:00,44.7,21.9,30.14,NNE,22,8.0,17.0,40,0.00,,---,0.00,VWS V14.00,2013-04-05 16:16:00,
2013-04-05 12:17:00,44.7,22.5,30.15,NNE,18,7.0,17.0,41,0.00,,---,0.00,VWS V14.00,2013-04-05 16:17:00,
2013-04-05 12:21:00,44.7,21.3,30.15,North,360,3.0,17.0,39,0.00,,---,0.00,VWS V14.00,2013-04-05 16:21:00,
2013-04-05 12:22:00,44.6,21.2,30.15,NNW,348,5.0,17.0,39,0.00,,---,0.00,VWS V14.00,2013-04-05 16:22:00,
2013-04-05 12:24:00,45.0,22.7,30.15,East,80,9.0,17.0,41,0.00,,---,0.00,VWS V14.00,2013-04-05 16:24:00,
2013-04-05 12:26:00,45.1,22.8,30.15,ENE,76,5.0,17.0,41,0.00,,---,0.00,VWS V14.00,2013-04-05 16:26:00,
2013-04-05 12:29:00,45.1,22.2,30.15,ENE,69,9.0,10.0,40,0.00,,---,0.00,VWS V14.00,2013-04-05 16:29:00,
2013-04-05 12:31:00,45.2,23.5,30.15,ENE,73,4.0,12.0,42,0.00,,---,0.00,VWS V14.00,2013-04-05 16:31:00,
2013-04-05 12:34:00,45.3,23.0,30.15,NE,45,4.0,14.0,41,0.00,,---,0.00,VWS V14.00,2013-04-05 16:34:00,
2013-04-05 12:35:00,45.4,23.1,30.14,NNE,26,16.0,18.0,41,0.00,,---,0.00,VWS V14.00,2013-04-05 16:35:00,
2013-04-05 12:38:00,45.5,21.4,30.15,North,351,7.0,18.0,38,0.00,,---,0.00,VWS V14.00,2013-04-05 16:38:00,
2013-04-05 12:41:00,45.5,20.8,30.14,NE,37,6.0,18.0,37,0.00,,---,0.00,VWS V14.00,2013-04-05 16:41:00,
2013-04-05 12:43:00,45.8,20.4,30.14,NNE,30,9.0,18.0,36,0.00,,---,0.00,VWS V14.00,2013-04-05 16:43:00,
2013-04-05 12:46:00,46.1,21.9,30.14,NW,319,9.0,18.0,38,0.00,,---,0.00,VWS V14.00,2013-04-05 16:46:00,
2013-04-05 12:48:00,46.0,20.6,30.14,North,349,11.0,18.0,36,0.00,,---,0.00,VWS V14.00,2013-04-05 16:48:00,
2013-04-05 12:49:00,46.0,20.6,30.14,NNW,336,9.0,18.0,36,0.00,,---,0.00,VWS V14.00,2013-04-05 16:49:00,
2013-04-05 12:52:00,45.9,20.5,30.14,North,355,5.0,18.0,36,0.00,,---,0.00,VWS V14.00,2013-04-05 16:52:00,
2013-04-05 12:54:00,45.8,20.4,30.15,NE,43,5.0,18.0,36,0.00,,---,0.00,VWS V14.00,2013-04-05 16:54:00,
2013-04-05 12:55:00,45.8,20.4,30.15,North,360,9.0,18.0,36,0.00,,---,0.00,VWS V14.00,2013-04-05 16:55:00,
2013-04-05 12:58:00,46.2,22.6,30.14,North,5,10.0,18.0,39,0.00,,---,0.00,VWS V14.00,2013-04-05 16:58:00,
2013-04-05 12:59:00,46.3,21.5,30.15,ENE,58,6.0,11.0,37,0.00,,---,0.00,VWS V14.00,2013-04-05 16:59:00,
2013-04-05 13:00:00,46.3,22.1,30.14,NE,34,4.0,11.0,38,0.00,,---,0.00,VWS V14.00,2013-04-05 17:00:00,
2013-04-05 13:02:00,46.4,21.6,30.14,NE,47,7.0,11.0,37,0.00,,---,0.00,VWS V14.00,2013-04-05 17:02:00,
2013-04-05 13:03:00,46.5,23.5,30.14,NE,36,6.0,11.0,40,0.00,,---,0.00,VWS V14.00,2013-04-05 17:03:00,
2013-04-05 13:05:00,46.8,24.4,30.14,NNE,23,4.0,11.0,41,0.00,,---,0.00,VWS V14.00,2013-04-05 17:05:00,
2013-04-05 13:07:00,47.0,24.5,30.15,ENE,61,6.0,11.0,41,0.00,,---,0.00,VWS V14.00,2013-04-05 17:07:00,
2013-04-05 13:10:00,47.2,24.1,30.14,NE,40,9.0,12.0,40,0.00,,---,0.00,VWS V14.00,2013-04-05 17:10:00,
2013-04-05 13:11:00,47.3,23.0,30.14,NNE,14,6.0,14.0,38,0.00,,---,0.00,VWS V14.00,2013-04-05 17:11:00,
2013-04-05 13:13:00,47.0,22.1,30.14,North,360,3.0,14.0,37,0.00,,---,0.00,VWS V14.00,2013-04-05 17:13:00,
2013-04-05 13:15:00,47.5,24.4,30.14,ENE,65,11.0,14.0,40,0.00,,---,0.00,VWS V14.00,2013-04-05 17:15:00,
2013-04-05 13:17:00,47.8,24.7,30.14,NNE,13,8.0,14.0,40,0.00,,---,0.00,VWS V14.00,2013-04-05 17:17:00,
2013-04-05 13:18:00,47.7,23.4,30.14,NNE,19,4.0,14.0,38,0.00,,---,0.00,VWS V14.00,2013-04-05 17:18:00,
2013-04-05 13:21:00,47.5,22.5,30.14,NE,42,1.0,14.0,37,0.00,,---,0.00,VWS V14.00,2013-04-05 17:21:00,
2013-04-05 13:23:00,47.6,22.6,30.14,NE,36,5.0,14.0,37,0.00,,---,0.00,VWS V14.00,2013-04-05 17:23:00,
2013-04-05 13:25:00,47.6,22.6,30.13,ESE,107,2.0,14.0,37,0.00,,---,0.00,VWS V14.00,2013-04-05 17:25:00,
2013-04-05 13:28:00,47.0,22.7,30.13,NE,55,3.0,14.0,38,0.00,,---,0.00,VWS V14.00,2013-04-05 17:28:00,
2013-04-05 13:30:00,47.1,22.8,30.13,ENE,59,7.0,7.0,38,0.00,,---,0.00,VWS V14.00,2013-04-05 17:30:00,
2013-04-05 13:34:00,47.8,22.2,30.14,WNW,291,5.0,17.0,36,0.00,,---,0.00,VWS V14.00,2013-04-05 17:34:00,
2013-04-05 13:36:00,48.0,21.7,30.14,WSW,256,1.0,17.0,35,0.00,,---,0.00,VWS V14.00,2013-04-05 17:36:00,
2013-04-05 13:38:00,48.1,23.1,30.13,NW,319,5.0,17.0,37,0.00,,---,0.00,VWS V14.00,2013-04-05 17:38:00,
2013-04-05 13:41:00,48.3,21.9,30.13,North,360,15.0,17.0,35,0.00,,---,0.00,VWS V14.00,2013-04-05 17:41:00,
2013-04-05 13:42:00,48.3,21.9,30.13,North,355,7.0,17.0,35,0.00,,---,0.00,VWS V14.00,2013-04-05 17:42:00,
2013-04-05 13:47:00,47.9,20.9,30.13,North,360,3.0,17.0,34,0.00,,---,0.00,VWS V14.00,2013-04-05 17:47:00,
2013-04-05 13:48:00,47.9,20.9,30.13,NNE,24,4.0,17.0,34,0.00,,---,0.00,VWS V14.00,2013-04-05 17:48:00,
2013-04-05 13:50:00,47.9,23.5,30.13,NE,40,8.0,17.0,38,0.00,,---,0.00,VWS V14.00,2013-04-05 17:50:00,
2013-04-05 13:53:00,47.9,21.6,30.13,NNE,14,12.0,17.0,35,0.00,,---,0.00,VWS V14.00,2013-04-05 17:53:00,
2013-04-05 13:54:00,48.0,22.3,30.12,North,5,2.0,17.0,36,0.00,,---,0.00,VWS V14.00,2013-04-05 17:54:00,
2013-04-05 13:56:00,48.1,21.1,30.12,North,349,5.0,17.0,34,0.00,,---,0.00,VWS V14.00,2013-04-05 17:56:00,
2013-04-05 13:57:00,48.2,21.2,30.12,North,5,5.0,17.0,34,0.00,,---,0.00,VWS V14.00,2013-04-05 17:57:00,
2013-04-05 14:00:00,48.3,23.9,30.12,North,360,5.0,14.0,38,0.00,,---,0.00,VWS V14.00,2013-04-05 18:00:00,
2013-04-05 14:03:00,48.6,24.8,30.12,NE,54,1.0,14.0,39,0.00,,---,0.00,VWS V14.00,2013-04-05 18:03:00,
2013-04-05 14:04:00,48.5,23.4,30.12,NE,46,2.0,14.0,37,0.00,,---,0.00,VWS V14.00,2013-04-05 18:04:00,
2013-04-05 14:05:00,48.4,23.3,30.12,North,11,1.0,14.0,37,0.00,,---,0.00,VWS V14.00,2013-04-05 18:05:00,
2013-04-05 14:06:00,48.3,22.6,30.12,NNW,341,5.0,14.0,36,0.00,,---,0.00,VWS V14.00,2013-04-05 18:06:00,
2013-04-05 14:10:00,48.5,21.4,30.12,NNE,23,5.0,14.0,34,0.00,,---,0.00,VWS V14.00,2013-04-05 18:10:00,
2013-04-05 14:12:00,48.7,20.9,30.12,NE,40,8.0,14.0,33,0.00,,---,0.00,VWS V14.00,2013-04-05 18:12:00,
2013-04-05 14:14:00,48.8,23.7,30.12,ENE,76,6.0,14.0,37,0.00,,---,0.00,VWS V14.00,2013-04-05 18:14:00,
2013-04-05 14:17:00,49.3,23.5,30.12,North,349,10.0,14.0,36,0.00,,---,0.00,VWS V14.00,2013-04-05 18:17:00,
2013-04-05 14:19:00,49.6,23.1,30.12,North,355,6.0,14.0,35,0.00,,---,0.00,VWS V14.00,2013-04-05 18:19:00,
2013-04-05 14:20:00,49.6,21.7,30.12,NNW,331,4.0,14.0,33,0.00,,---,0.00,VWS V14.00,2013-04-05 18:20:00,
2013-04-05 14:24:00,49.9,27.1,30.12,ENE,59,6.0,14.0,41,0.00,,---,0.00,VWS V14.00,2013-04-05 18:24:00,
2013-04-05 14:25:00,49.9,26.6,30.12,ENE,59,10.0,14.0,40,0.00,,---,0.00,VWS V14.00,2013-04-05 18:25:00,
2013-04-05 14:29:00,48.8,22.4,30.12,ENE,72,1.0,5.0,35,0.00,,---,0.00,VWS V14.00,2013-04-05 18:29:00,
2013-04-05 14:30:00,48.8,22.4,30.12,ENE,72,0.0,5.0,35,0.00,,---,0.00,VWS V14.00,2013-04-05 18:30:00,
2013-04-05 14:32:00,49.1,22.0,30.12,NNE,32,10.0,16.0,34,0.00,,---,0.00,VWS V14.00,2013-04-05 18:32:00,
2013-04-05 14:35:00,49.4,24.2,30.12,NE,40,13.0,18.0,37,0.00,,---,0.00,VWS V14.00,2013-04-05 18:35:00,
2013-04-05 14:36:00,49.2,24.1,30.12,ENE,59,7.0,18.0,37,0.00,,---,0.00,VWS V14.00,2013-04-05 18:36:00,
2013-04-05 14:37:00,49.1,24.0,30.12,ENE,68,11.0,18.0,37,0.00,,---,0.00,VWS V14.00,2013-04-05 18:37:00,
2013-04-05 14:39:00,49.1,22.6,30.12,ENE,71,5.0,18.0,35,0.00,,---,0.00,VWS V14.00,2013-04-05 18:39:00,
2013-04-05 14:42:00,49.0,21.9,30.12,ENE,60,1.0,18.0,34,0.00,,---,0.00,VWS V14.00,2013-04-05 18:42:00,
2013-04-05 14:44:00,49.3,21.4,30.12,NNW,328,4.0,18.0,33,0.00,,---,0.00,VWS V14.00,2013-04-05 18:44:00,
2013-04-05 14:46:00,49.5,20.9,30.12,NNE,29,10.0,19.0,32,0.00,,---,0.00,VWS V14.00,2013-04-05 18:46:00,
2013-04-05 14:47:00,49.5,23.7,30.12,NE,46,4.0,19.0,36,0.00,,---,0.00,VWS V14.00,2013-04-05 18:47:00,
2013-04-05 14:51:00,49.4,22.9,30.11,NE,36,7.0,19.0,35,0.00,,---,0.00,VWS V14.00,2013-04-05 18:51:00,
2013-04-05 14:52:00,49.4,22.9,30.11,NE,42,6.0,19.0,35,0.00,,---,0.00,VWS V14.00,2013-04-05 18:52:00,
2013-04-05 14:53:00,49.2,22.0,30.11,NE,51,7.0,19.0,34,0.00,,---,0.00,VWS V14.00,2013-04-05 18:53:00,
2013-04-05 14:57:00,49.0,20.4,30.11,North,350,2.0,19.0,32,0.00,,---,0.00,VWS V14.00,2013-04-05 18:57:00,
2013-04-05 14:58:00,49.2,21.3,30.11,NE,44,4.0,19.0,33,0.00,,---,0.00,VWS V14.00,2013-04-05 18:58:00,
2013-04-05 15:01:00,49.3,20.0,30.11,ENE,65,2.0,9.0,31,0.00,,---,0.00,VWS V14.00,2013-04-05 19:01:00,
2013-04-05 15:04:00,49.2,20.6,30.11,ENE,63,6.0,9.0,32,0.00,,---,0.00,VWS V14.00,2013-04-05 19:04:00,
2013-04-05 15:09:00,50.0,24.8,30.10,NE,35,6.0,13.0,37,0.00,,---,0.00,VWS V14.00,2013-04-05 19:09:00,
2013-04-05 15:10:00,50.1,24.9,30.10,NNE,30,6.0,13.0,37,0.00,,---,0.00,VWS V14.00,2013-04-05 19:10:00,
2013-04-05 15:12:00,50.1,23.5,30.10,ENE,77,6.0,13.0,35,0.00,,---,0.00,VWS V14.00,2013-04-05 19:12:00,
2013-04-05 15:13:00,50.0,23.4,30.10,NNE,30,2.0,13.0,35,0.00,,---,0.00,VWS V14.00,2013-04-05 19:13:00,
2013-04-05 15:15:00,49.8,23.3,30.10,NNE,14,4.0,13.0,35,0.00,,---,0.00,VWS V14.00,2013-04-05 19:15:00,
2013-04-05 15:19:00,49.9,24.0,30.10,NE,39,7.0,13.0,36,0.00,,---,0.00,VWS V14.00,2013-04-05 19:19:00,
2013-04-05 15:20:00,50.3,25.7,30.10,NNE,22,11.0,13.0,38,0.00,,---,0.00,VWS V14.00,2013-04-05 19:20:00,
2013-04-05 15:22:00,50.3,24.4,30.10,North,350,10.0,16.0,36,0.00,,---,0.00,VWS V14.00,2013-04-05 19:22:00,
2013-04-05 15:25:00,50.2,20.8,30.10,NNE,18,5.0,16.0,31,0.00,,---,0.00,VWS V14.00,2013-04-05 19:25:00,
2013-04-05 15:26:00,50.1,20.7,30.10,NNE,26,5.0,16.0,31,0.00,,---,0.00,VWS V14.00,2013-04-05 19:26:00,
2013-04-05 15:27:00,50.0,22.8,30.10,NNE,33,10.0,16.0,34,0.00,,---,0.00,VWS V14.00,2013-04-05 19:27:00,
2013-04-05 15:31:00,49.7,23.2,30.10,NE,42,6.0,15.0,35,0.00,,---,0.00,VWS V14.00,2013-04-05 19:31:00,
2013-04-05 15:32:00,49.4,21.5,30.10,ENE,63,2.0,15.0,33,0.00,,---,0.00,VWS V14.00,2013-04-05 19:32:00,
2013-04-05 15:36:00,49.7,21.8,30.09,ENE,69,3.0,15.0,33,0.00,,---,0.00,VWS V14.00,2013-04-05 19:36:00,
2013-04-05 15:39:00,50.3,25.0,30.09,NE,38,16.0,18.0,37,0.00,,---,0.00,VWS V14.00,2013-04-05 19:39:00,
2013-04-05 15:41:00,50.3,25.0,30.09,NE,53,10.0,18.0,37,0.00,,---,0.00,VWS V14.00,2013-04-05 19:41:00,
2013-04-05 15:42:00,50.3,24.4,30.09,ENE,75,4.0,18.0,36,0.00,,---,0.00,VWS V14.00,2013-04-05 19:42:00,
2013-04-05 15:44:00,49.9,22.0,30.09,NE,36,2.0,18.0,33,0.00,,---,0.00,VWS V14.00,2013-04-05 19:44:00,
2013-04-05 15:46:00,50.4,25.1,30.09,NNW,348,10.0,18.0,37,0.00,,---,0.00,VWS V14.00,2013-04-05 19:46:00,
2013-04-05 15:47:00,50.4,22.4,30.09,NNW,330,8.0,18.0,33,0.00,,---,0.00,VWS V14.00,2013-04-05 19:47:00,
2013-04-05 15:48:00,50.5,21.8,30.09,NNE,22,11.0,18.0,32,0.00,,---,0.00,VWS V14.00,2013-04-05 19:48:00,
2013-04-05 15:50:00,50.4,21.7,30.09,North,5,5.0,18.0,32,0.00,,---,0.00,VWS V14.00,2013-04-05 19:50:00,
2013-04-05 15:53:00,49.9,21.2,30.09,NNE,17,4.0,18.0,32,0.00,,---,0.00,VWS V14.00,2013-04-05 19:53:00,
2013-04-05 15:55:00,50.0,22.0,30.09,NNE,15,1.0,18.0,33,0.00,,---,0.00,VWS V14.00,2013-04-05 19:55:00,
2013-04-05 15:56:00,50.0,22.0,30.09,NNE,15,0.0,18.0,33,0.00,,---,0.00,VWS V14.00,2013-04-05 19:56:00,
2013-04-05 15:58:00,50.2,21.5,30.09,NNE,17,1.0,18.0,32,0.00,,---,0.00,VWS V14.00,2013-04-05 19:58:00,
2013-04-05 16:01:00,50.7,21.9,30.09,NNW,331,8.0,13.0,32,0.00,,---,0.00,VWS V14.00,2013-04-05 20:01:00,
2013-04-05 16:03:00,50.8,22.0,30.09,North,11,11.0,13.0,32,0.00,,---,0.00,VWS V14.00,2013-04-05 20:03:00,
2013-04-05 16:05:00,50.8,24.1,30.09,North,5,3.0,13.0,35,0.00,,---,0.00,VWS V14.00,2013-04-05 20:05:00,
2013-04-05 16:06:00,50.8,23.5,30.09,North,360,3.0,13.0,34,0.00,,---,0.00,VWS V14.00,2013-04-05 20:06:00,
2013-04-05 16:09:00,50.9,22.1,30.09,North,355,6.0,13.0,32,0.00,,---,0.00,VWS V14.00,2013-04-05 20:09:00,
2013-04-05 16:10:00,50.8,22.0,30.09,NNW,348,3.0,13.0,32,0.00,,---,0.00,VWS V14.00,2013-04-05 20:10:00,
2013-04-05 16:14:00,50.9,22.1,30.09,North,349,7.0,13.0,32,0.00,,---,0.00,VWS V14.00,2013-04-05 20:14:00,
2013-04-05 16:15:00,50.9,22.1,30.09,NNE,19,15.0,16.0,32,0.00,,---,0.00,VWS V14.00,2013-04-05 20:15:00,
2013-04-05 16:16:00,50.6,21.9,30.09,NNE,28,6.0,16.0,32,0.00,,---,0.00,VWS V14.00,2013-04-05 20:16:00,
2013-04-05 16:20:00,50.6,22.6,30.09,NE,34,7.0,16.0,33,0.00,,---,0.00,VWS V14.00,2013-04-05 20:20:00,
2013-04-05 16:21:00,50.8,22.8,30.09,North,355,10.0,16.0,33,0.00,,---,0.00,VWS V14.00,2013-04-05 20:21:00,
2013-04-05 16:25:00,51.1,24.4,30.09,NE,55,5.0,16.0,35,0.00,,---,0.00,VWS V14.00,2013-04-05 20:25:00,
2013-04-05 16:27:00,50.8,22.8,30.09,ENE,64,4.0,16.0,33,0.00,,---,0.00,VWS V14.00,2013-04-05 20:27:00,
2013-04-05 16:28:00,50.5,22.5,30.09,East,80,3.0,16.0,33,0.00,,---,0.00,VWS V14.00,2013-04-05 20:28:00,
2013-04-05 16:31:00,50.2,22.2,30.09,North,11,13.0,13.0,33,0.00,,---,0.00,VWS V14.00,2013-04-05 20:31:00,
2013-04-05 16:32:00,50.1,21.4,30.09,NNW,339,6.0,13.0,32,0.00,,---,0.00,VWS V14.00,2013-04-05 20:32:00,
2013-04-05 16:33:00,50.1,21.4,30.09,NNW,343,7.0,13.0,32,0.00,,---,0.00,VWS V14.00,2013-04-05 20:33:00,
2013-04-05 16:34:00,50.3,21.6,30.09,NNW,327,1.0,13.0,32,0.00,,---,0.00,VWS V14.00,2013-04-05 20:34:00,
2013-04-05 16:37:00,50.5,21.8,30.09,NW,324,4.0,13.0,32,0.00,,---,0.00,VWS V14.00,2013-04-05 20:37:00,
2013-04-05 16:38:00,50.6,21.9,30.09,NW,324,3.0,13.0,32,0.00,,---,0.00,VWS V14.00,2013-04-05 20:38:00,
2013-04-05 16:40:00,50.8,22.0,30.09,NW,318,2.0,13.0,32,0.00,,---,0.00,VWS V14.00,2013-04-05 20:40:00,
2013-04-05 16:44:00,51.1,21.5,30.09,North,355,2.0,13.0,31,0.00,,---,0.00,VWS V14.00,2013-04-05 20:44:00,
2013-04-05 16:45:00,50.8,21.3,30.09,NNE,13,4.0,13.0,31,0.00,,---,0.00,VWS V14.00,2013-04-05 20:45:00,
2013-04-05 16:46:00,50.8,22.8,30.09,NE,48,14.0,14.0,33,0.00,,---,0.00,VWS V14.00,2013-04-05 20:46:00,
2013-04-05 16:47:00,50.7,24.1,30.09,NE,40,10.0,14.0,35,0.00,,---,0.00,VWS V14.00,2013-04-05 20:47:00,
2013-04-05 16:49:00,50.6,21.9,30.09,NNW,327,2.0,14.0,32,0.00,,---,0.00,VWS V14.00,2013-04-05 20:49:00,
2013-04-05 16:51:00,50.8,24.1,30.08,ENE,57,6.0,14.0,35,0.00,,---,0.00,VWS V14.00,2013-04-05 20:51:00,
2013-04-05 16:52:00,50.9,24.2,30.08,ENE,57,4.0,14.0,35,0.00,,---,0.00,VWS V14.00,2013-04-05 20:52:00,
2013-04-05 16:54:00,50.6,24.0,30.09,ENE,59,0.0,14.0,35,0.00,,---,0.00,VWS V14.00,2013-04-05 20:54:00,
2013-04-05 16:57:00,50.7,21.9,30.08,NNE,24,9.0,16.0,32,0.00,,---,0.00,VWS V14.00,2013-04-05 20:57:00,
2013-04-05 16:59:00,50.6,21.9,30.09,North,5,3.0,4.0,32,0.00,,---,0.00,VWS V14.00,2013-04-05 20:59:00,
2013-04-05 17:00:00,50.6,22.6,30.08,NNE,23,3.0,5.0,33,0.00,,---,0.00,VWS V14.00,2013-04-05 21:00:00,
2013-04-05 17:02:00,50.5,25.2,30.08,NNE,30,10.0,12.0,37,0.00,,---,0.00,VWS V14.00,2013-04-05 21:02:00,
2013-04-05 17:05:00,50.5,21.8,30.08,NW,306,2.0,12.0,32,0.00,,---,0.00,VWS V14.00,2013-04-05 21:05:00,
2013-04-05 17:06:00,50.6,21.9,30.08,NW,307,2.0,12.0,32,0.00,,---,0.00,VWS V14.00,2013-04-05 21:06:00,
2013-04-05 17:07:00,50.9,24.2,30.08,NNE,33,3.0,12.0,35,0.00,,---,0.00,VWS V14.00,2013-04-05 21:07:00,
2013-04-05 17:09:00,51.2,24.5,30.08,North,360,7.0,12.0,35,0.00,,---,0.00,VWS V14.00,2013-04-05 21:09:00,
2013-04-05 17:10:00,51.3,23.9,30.08,North,360,8.0,12.0,34,0.00,,---,0.00,VWS V14.00,2013-04-05 21:10:00,
2013-04-05 17:11:00,51.1,22.3,30.08,NW,313,6.0,12.0,32,0.00,,---,0.00,VWS V14.00,2013-04-05 21:11:00,
2013-04-05 17:13:00,50.9,22.1,30.08,North,5,5.0,12.0,32,0.00,,---,0.00,VWS V14.00,2013-04-05 21:13:00,
2013-04-05 17:15:00,50.4,21.7,30.08,North,360,5.0,13.0,32,0.00,,---,0.00,VWS V14.00,2013-04-05 21:15:00,
2013-04-05 17:17:00,50.4,21.7,30.08,NW,310,4.0,13.0,32,0.00,,---,0.00,VWS V14.00,2013-04-05 21:17:00,
2013-04-05 17:19:00,50.6,21.9,30.08,NNW,330,10.0,13.0,32,0.00,,---,0.00,VWS V14.00,2013-04-05 21:19:00,
2013-04-05 17:20:00,50.7,21.9,30.08,WNW,296,4.0,13.0,32,0.00,,---,0.00,VWS V14.00,2013-04-05 21:20:00,
2013-04-05 17:23:00,50.7,21.9,30.08,North,5,3.0,13.0,32,0.00,,---,0.00,VWS V14.00,2013-04-05 21:23:00,
2013-04-05 17:24:00,50.7,22.7,30.08,NNE,21,5.0,15.0,33,0.00,,---,0.00,VWS V14.00,2013-04-05 21:24:00,
2013-04-05 17:25:00,50.7,22.7,30.08,NNE,21,6.0,15.0,33,0.00,,---,0.00,VWS V14.00,2013-04-05 21:25:00,
2013-04-05 17:28:00,50.6,21.9,30.08,NNE,13,2.0,15.0,32,0.00,,---,0.00,VWS V14.00,2013-04-05 21:28:00,
2013-04-05 17:29:00,50.5,21.8,30.08,NW,319,4.0,5.0,32,0.00,,---,0.00,VWS V14.00,2013-04-05 21:29:00,
2013-04-05 17:31:00,50.7,21.9,30.08,NW,306,3.0,5.0,32,0.00,,---,0.00,VWS V14.00,2013-04-05 21:31:00,
2013-04-05 17:32:00,50.8,22.0,30.08,NW,324,5.0,5.0,32,0.00,,---,0.00,VWS V14.00,2013-04-05 21:32:00,
2013-04-05 17:33:00,50.9,21.4,30.08,NNW,334,5.0,6.0,31,0.00,,---,0.00,VWS V14.00,2013-04-05 21:33:00,
2013-04-05 17:35:00,51.1,23.0,30.08,NNE,19,5.0,6.0,33,0.00,,---,0.00,VWS V14.00,2013-04-05 21:35:00,
2013-04-05 17:37:00,51.0,23.6,30.08,NE,40,5.0,6.0,34,0.00,,---,0.00,VWS V14.00,2013-04-05 21:37:00,
2013-04-05 17:39:00,51.0,22.2,30.08,NE,36,11.0,11.0,32,0.00,,---,0.00,VWS V14.00,2013-04-05 21:39:00,
2013-04-05 17:40:00,50.9,21.4,30.08,NNE,16,3.0,11.0,31,0.00,,---,0.00,VWS V14.00,2013-04-05 21:40:00,
2013-04-05 17:42:00,50.6,21.1,30.09,NE,42,6.0,11.0,31,0.00,,---,0.00,VWS V14.00,2013-04-05 21:42:00,
2013-04-05 17:45:00,50.6,22.6,30.08,NE,37,2.0,11.0,33,0.00,,---,0.00,VWS V14.00,2013-04-05 21:45:00,
2013-04-05 17:46:00,50.7,24.1,30.09,North,11,3.0,11.0,35,0.00,,---,0.00,VWS V14.00,2013-04-05 21:46:00,
2013-04-05 17:48:00,50.7,23.4,30.09,NE,51,2.0,11.0,34,0.00,,---,0.00,VWS V14.00,2013-04-05 21:48:00,
2013-04-05 17:51:00,50.4,22.4,30.09,East,80,2.0,11.0,33,0.00,,---,0.00,VWS V14.00,2013-04-05 21:51:00,
2013-04-05 17:54:00,50.0,25.4,30.08,North,9,8.0,11.0,38,0.00,,---,0.00,VWS V14.00,2013-04-05 21:54:00,
2013-04-05 17:58:00,49.9,24.7,30.09,NNE,13,6.0,15.0,37,0.00,,---,0.00,VWS V14.00,2013-04-05 21:58:00,
2013-04-05 17:59:00,49.9,25.3,30.09,NNE,26,10.0,12.0,38,0.00,,---,0.00,VWS V14.00,2013-04-05 21:59:00,
2013-04-05 18:02:00,49.9,26.0,30.09,NNW,344,6.0,13.0,39,0.00,,---,0.00,VWS V14.00,2013-04-05 22:02:00,
2013-04-05 18:04:00,49.9,26.0,30.09,NNE,31,3.0,13.0,39,0.00,,---,0.00,VWS V14.00,2013-04-05 22:04:00,
2013-04-05 18:05:00,49.9,26.6,30.09,NNW,329,2.0,13.0,40,0.00,,---,0.00,VWS V14.00,2013-04-05 22:05:00,
2013-04-05 18:08:00,49.7,27.0,30.09,NNW,344,7.0,15.0,41,0.00,,---,0.00,VWS V14.00,2013-04-05 22:08:00,
2013-04-05 18:10:00,49.5,27.4,30.09,NNW,330,4.0,15.0,42,0.00,,---,0.00,VWS V14.00,2013-04-05 22:10:00,
2013-04-05 18:12:00,49.4,27.3,30.10,NW,315,4.0,15.0,42,0.00,,---,0.00,VWS V14.00,2013-04-05 22:12:00,
2013-04-05 18:14:00,49.2,27.7,30.09,NW,317,11.0,15.0,43,0.00,,---,0.00,VWS V14.00,2013-04-05 22:14:00,
2013-04-05 18:16:00,49.2,27.7,30.09,WNW,302,13.0,16.0,43,0.00,,---,0.00,VWS V14.00,2013-04-05 22:16:00,
2013-04-05 18:17:00,49.1,27.6,30.09,NW,309,7.0,16.0,43,0.00,,---,0.00,VWS V14.00,2013-04-05 22:17:00,
2013-04-05 18:18:00,48.8,27.3,30.09,NNW,345,11.0,16.0,43,0.00,,---,0.00,VWS V14.00,2013-04-05 22:18:00,
2013-04-05 18:20:00,48.6,27.1,30.09,NW,308,5.0,16.0,43,0.00,,---,0.00,VWS V14.00,2013-04-05 22:20:00,
2013-04-05 18:22:00,48.4,27.5,30.10,NW,319,5.0,16.0,44,0.00,,---,0.00,VWS V14.00,2013-04-05 22:22:00,
2013-04-05 18:24:00,48.3,27.4,30.10,NNW,330,11.0,17.0,44,0.00,,---,0.00,VWS V14.00,2013-04-05 22:24:00,
2013-04-05 18:27:00,47.7,27.4,30.10,NW,311,9.0,17.0,45,0.00,,---,0.00,VWS V14.00,2013-04-05 22:27:00,
2013-04-05 18:29:00,47.6,27.3,30.10,North,355,14.0,16.0,45,0.00,,---,0.00,VWS V14.00,2013-04-05 22:29:00,
2013-04-05 18:30:00,47.5,27.2,30.10,NNW,333,16.0,19.0,45,0.00,,---,0.00,VWS V14.00,2013-04-05 22:30:00,
2013-04-05 18:31:00,47.4,27.1,30.10,NNW,340,6.0,19.0,45,0.00,,---,0.00,VWS V14.00,2013-04-05 22:31:00,
2013-04-05 18:34:00,47.2,27.5,30.10,NNW,344,12.0,19.0,46,0.00,,---,0.00,VWS V14.00,2013-04-05 22:34:00,
2013-04-05 18:35:00,47.1,27.4,30.10,NNW,341,15.0,19.0,46,0.00,,---,0.00,VWS V14.00,2013-04-05 22:35:00,
2013-04-05 18:39:00,46.9,27.2,30.11,North,360,5.0,19.0,46,0.00,,---,0.00,VWS V14.00,2013-04-05 22:39:00,
2013-04-05 18:40:00,46.8,27.1,30.11,NNW,342,3.0,19.0,46,0.00,,---,0.00,VWS V14.00,2013-04-05 22:40:00,
2013-04-05 18:42:00,46.9,27.2,30.11,NNW,342,11.0,19.0,46,0.00,,---,0.00,VWS V14.00,2013-04-05 22:42:00,
2013-04-05 18:44:00,46.9,27.2,30.11,NW,322,10.0,19.0,46,0.00,,---,0.00,VWS V14.00,2013-04-05 22:44:00,
2013-04-05 18:46:00,46.9,27.2,30.11,NW,310,6.0,19.0,46,0.00,,---,0.00,VWS V14.00,2013-04-05 22:46:00,
2013-04-05 18:48:00,46.9,27.7,30.11,NNW,336,9.0,19.0,47,0.00,,---,0.00,VWS V14.00,2013-04-05 22:48:00,
2013-04-05 18:50:00,46.9,27.7,30.11,NW,325,6.0,19.0,47,0.00,,---,0.00,VWS V14.00,2013-04-05 22:50:00,
2013-04-05 18:51:00,46.8,27.6,30.11,NW,315,10.0,19.0,47,0.00,,---,0.00,VWS V14.00,2013-04-05 22:51:00,
2013-04-05 18:52:00,46.8,27.6,30.11,WNW,294,8.0,19.0,47,0.00,,---,0.00,VWS V14.00,2013-04-05 22:52:00,
2013-04-05 18:56:00,46.6,27.5,30.11,NW,315,10.0,19.0,47,0.00,,---,0.00,VWS V14.00,2013-04-05 22:56:00,
2013-04-05 18:58:00,46.6,27.5,30.12,NW,315,9.0,19.0,47,0.00,,---,0.00,VWS V14.00,2013-04-05 22:58:00,
2013-04-05 19:01:00,46.4,27.3,30.12,North,355,8.0,13.0,47,0.00,,---,0.00,VWS V14.00,2013-04-05 23:01:00,
2013-04-05 19:02:00,46.3,27.2,30.12,NW,321,12.0,14.0,47,0.00,,---,0.00,VWS V14.00,2013-04-05 23:02:00,
2013-04-05 19:03:00,46.2,27.1,30.12,North,360,8.0,14.0,47,0.00,,---,0.00,VWS V14.00,2013-04-05 23:03:00,
2013-04-05 19:04:00,46.1,27.0,30.12,West,277,9.0,14.0,47,0.00,,---,0.00,VWS V14.00,2013-04-05 23:04:00,
2013-04-05 19:07:00,45.9,27.3,30.12,NW,312,5.0,14.0,48,0.00,,---,0.00,VWS V14.00,2013-04-05 23:07:00,
2013-04-05 19:08:00,45.9,27.3,30.12,WNW,302,6.0,14.0,48,0.00,,---,0.00,VWS V14.00,2013-04-05 23:08:00,
2013-04-05 19:09:00,45.9,27.3,30.12,NW,311,6.0,14.0,48,0.00,,---,0.00,VWS V14.00,2013-04-05 23:09:00,
2013-04-05 19:13:00,45.6,27.1,30.12,NNW,336,7.0,17.0,48,0.00,,---,0.00,VWS V14.00,2013-04-05 23:13:00,
2013-04-05 19:14:00,45.6,27.1,30.12,North,350,11.0,17.0,48,0.00,,---,0.00,VWS V14.00,2013-04-05 23:14:00,
2013-04-05 19:15:00,45.5,27.0,30.13,NNW,337,11.0,17.0,48,0.00,,---,0.00,VWS V14.00,2013-04-05 23:15:00,
2013-04-05 19:20:00,45.3,27.3,30.13,WNW,300,8.0,17.0,49,0.00,,---,0.00,VWS V14.00,2013-04-05 23:20:00,
2013-04-05 19:21:00,45.3,27.3,30.13,NNW,331,5.0,17.0,49,0.00,,---,0.00,VWS V14.00,2013-04-05 23:21:00,
2013-04-05 19:22:00,45.2,27.2,30.13,NNW,331,2.0,17.0,49,0.00,,---,0.00,VWS V14.00,2013-04-05 23:22:00,
2013-04-05 19:25:00,45.2,27.2,30.13,NNW,340,11.0,17.0,49,0.00,,---,0.00,VWS V14.00,2013-04-05 23:25:00,
2013-04-05 19:27:00,45.0,27.0,30.13,NW,317,5.0,17.0,49,0.00,,---,0.00,VWS V14.00,2013-04-05 23:27:00,
2013-04-05 19:28:00,45.0,27.0,30.13,NNW,341,3.0,17.0,49,0.00,,---,0.00,VWS V14.00,2013-04-05 23:28:00,
2013-04-05 19:31:00,44.9,26.9,30.13,NW,311,4.0,13.0,49,0.00,,---,0.00,VWS V14.00,2013-04-05 23:31:00,
2013-04-05 19:33:00,44.8,26.8,30.13,North,355,4.0,13.0,49,0.00,,---,0.00,VWS V14.00,2013-04-05 23:33:00,
2013-04-05 19:36:00,44.6,26.6,30.13,NNW,339,3.0,13.0,49,0.00,,---,0.00,VWS V14.00,2013-04-05 23:36:00,
2013-04-05 19:37:00,44.6,27.1,30.13,NW,318,9.0,13.0,50,0.00,,---,0.00,VWS V14.00,2013-04-05 23:37:00,
2013-04-05 19:38:00,44.6,27.1,30.13,WNW,295,2.0,13.0,50,0.00,,---,0.00,VWS V14.00,2013-04-05 23:38:00,
2013-04-05 19:42:00,44.5,27.0,30.13,NW,309,5.0,13.0,50,0.00,,---,0.00,VWS V14.00,2013-04-05 23:42:00,
2013-04-05 19:43:00,44.5,27.0,30.13,NNW,338,5.0,13.0,50,0.00,,---,0.00,VWS V14.00,2013-04-05 23:43:00,
2013-04-05 19:45:00,44.4,26.9,30.13,NNW,342,9.0,13.0,50,0.00,,---,0.00,VWS V14.00,2013-04-05 23:45:00,
2013-04-05 19:48:00,44.2,26.8,30.13,NW,325,7.0,13.0,50,0.00,,---,0.00,VWS V14.00,2013-04-05 23:48:00,
2013-04-05 19:49:00,44.2,26.8,30.13,NNW,329,6.0,13.0,50,0.00,,---,0.00,VWS V14.00,2013-04-05 23:49:00,
2013-04-05 19:53:00,44.1,26.7,30.13,NW,314,2.0,13.0,50,0.00,,---,0.00,VWS V14.00,2013-04-05 23:53:00,
2013-04-05 19:54:00,44.1,26.7,30.13,NNW,348,7.0,13.0,50,0.00,,---,0.00,VWS V14.00,2013-04-05 23:54:00,
2013-04-05 19:55:00,44.0,26.6,30.13,NW,319,3.0,13.0,50,0.00,,---,0.00,VWS V14.00,2013-04-05 23:55:00,
2013-04-05 19:59:00,43.9,26.5,30.13,NNW,344,3.0,5.0,50,0.00,,---,0.00,VWS V14.00,2013-04-05 23:59:00,
2013-04-05 20:00:00,43.9,26.5,30.13,NW,321,6.0,6.0,50,0.00,,---,0.00,VWS V14.00,2013-04-06 00:00:00,
2013-04-05 20:05:00,43.4,26.5,30.13,North,355,9.0,10.0,51,0.00,,---,0.00,VWS V14.00,2013-04-06 00:05:00,
2013-04-05 20:06:00,43.4,26.5,30.13,North,350,4.0,10.0,51,0.00,,---,0.00,VWS V14.00,2013-04-06 00:06:00,
2013-04-05 20:07:00,43.3,26.4,30.13,NNW,345,4.0,10.0,51,0.00,,---,0.00,VWS V14.00,2013-04-06 00:07:00,
2013-04-05 20:09:00,43.2,26.3,30.13,NNW,342,2.0,10.0,51,0.00,,---,0.00,VWS V14.00,2013-04-06 00:09:00,
2013-04-05 20:11:00,43.1,26.2,30.13,NNW,342,2.0,10.0,51,0.00,,---,0.00,VWS V14.00,2013-04-06 00:11:00,
2013-04-05 20:13:00,43.0,26.6,30.13,NNW,335,2.0,10.0,52,0.00,,---,0.00,VWS V14.00,2013-04-06 00:13:00,
2013-04-05 20:14:00,43.0,26.6,30.13,NNW,333,2.0,10.0,52,0.00,,---,0.00,VWS V14.00,2013-04-06 00:14:00,
2013-04-05 20:15:00,42.9,26.5,30.13,NNW,340,3.0,10.0,52,0.00,,---,0.00,VWS V14.00,2013-04-06 00:15:00,
2013-04-05 20:17:00,42.8,26.4,30.13,NNW,327,3.0,10.0,52,0.00,,---,0.00,VWS V14.00,2013-04-06 00:17:00,
2013-04-05 20:18:00,42.8,26.4,30.14,NW,319,5.0,10.0,52,0.00,,---,0.00,VWS V14.00,2013-04-06 00:18:00,
2013-04-05 20:20:00,42.6,26.2,30.14,NNW,342,3.0,10.0,52,0.00,,---,0.00,VWS V14.00,2013-04-06 00:20:00,
2013-04-05 20:24:00,42.5,26.6,30.14,NW,319,4.0,10.0,53,0.00,,---,0.00,VWS V14.00,2013-04-06 00:24:00,
2013-04-05 20:25:00,42.4,26.5,30.14,NNW,327,3.0,10.0,53,0.00,,---,0.00,VWS V14.00,2013-04-06 00:25:00,
2013-04-05 20:26:00,42.3,26.4,30.14,NW,326,2.0,10.0,53,0.00,,---,0.00,VWS V14.00,2013-04-06 00:26:00,
2013-04-05 20:27:00,42.3,26.4,30.14,NW,324,2.0,10.0,53,0.00,,---,0.00,VWS V14.00,2013-04-06 00:27:00,
2013-04-05 20:29:00,42.2,26.3,30.14,NW,322,2.0,3.0,53,0.00,,---,0.00,VWS V14.00,2013-04-06 00:29:00,
2013-04-05 20:30:00,42.2,26.3,30.14,NNW,327,3.0,6.0,53,0.00,,---,0.00,VWS V14.00,2013-04-06 00:30:00,
2013-04-05 20:34:00,41.9,26.5,30.14,NNW,338,2.0,7.0,54,0.00,,---,0.00,VWS V14.00,2013-04-06 00:34:00,
2013-04-05 20:35:00,41.8,26.4,30.14,NNW,336,3.0,7.0,54,0.00,,---,0.00,VWS V14.00,2013-04-06 00:35:00,
2013-04-05 20:36:00,41.8,26.4,30.14,NW,310,7.0,7.0,54,0.00,,---,0.00,VWS V14.00,2013-04-06 00:36:00,
2013-04-05 20:37:00,41.7,26.3,30.14,NNW,338,5.0,7.0,54,0.00,,---,0.00,VWS V14.00,2013-04-06 00:37:00,
2013-04-05 20:40:00,41.6,26.2,30.14,NNW,342,4.0,7.0,54,0.00,,---,0.00,VWS V14.00,2013-04-06 00:40:00,
2013-04-05 20:42:00,41.5,26.1,30.14,NNW,337,3.0,7.0,54,0.00,,---,0.00,VWS V14.00,2013-04-06 00:42:00,
2013-04-05 20:43:00,41.5,26.1,30.14,NNW,332,3.0,7.0,54,0.00,,---,0.00,VWS V14.00,2013-04-06 00:43:00,
2013-04-05 20:46:00,41.3,25.9,30.14,NNW,336,3.0,7.0,54,0.00,,---,0.00,VWS V14.00,2013-04-06 00:46:00,
2013-04-05 20:48:00,41.2,26.3,30.14,NNW,336,2.0,7.0,55,0.00,,---,0.00,VWS V14.00,2013-04-06 00:48:00,
2013-04-05 20:49:00,41.2,26.3,30.14,NNW,337,5.0,7.0,55,0.00,,---,0.00,VWS V14.00,2013-04-06 00:49:00,
2013-04-05 20:51:00,41.1,26.2,30.14,NNW,336,3.0,7.0,55,0.00,,---,0.00,VWS V14.00,2013-04-06 00:51:00,
2013-04-05 20:52:00,41.0,26.1,30.14,NNW,334,2.0,7.0,55,0.00,,---,0.00,VWS V14.00,2013-04-06 00:52:00,
2013-04-05 20:54:00,41.0,26.1,30.14,NNW,336,4.0,7.0,55,0.00,,---,0.00,VWS V14.00,2013-04-06 00:54:00,
2013-04-05 20:56:00,40.9,26.0,30.14,NNW,341,1.0,7.0,55,0.00,,---,0.00,VWS V14.00,2013-04-06 00:56:00,
2013-04-05 20:57:00,40.9,26.0,30.14,NNW,341,2.0,7.0,55,0.00,,---,0.00,VWS V14.00,2013-04-06 00:57:00,
2013-04-05 20:58:00,40.8,25.9,30.14,NNW,342,3.0,7.0,55,0.00,,---,0.00,VWS V14.00,2013-04-06 00:58:00,
2013-04-05 21:02:00,40.7,26.2,30.15,NNW,341,3.0,4.0,56,0.00,,---,0.00,VWS V14.00,2013-04-06 01:02:00,
2013-04-05 21:04:00,40.6,26.1,30.15,NNW,341,1.0,4.0,56,0.00,,---,0.00,VWS V14.00,2013-04-06 01:04:00,
2013-04-05 21:06:00,40.5,26.0,30.15,NNW,337,3.0,6.0,56,0.00,,---,0.00,VWS V14.00,2013-04-06 01:06:00,
2013-04-05 21:09:00,40.5,26.0,30.15,NNW,334,4.0,6.0,56,0.00,,---,0.00,VWS V14.00,2013-04-06 01:09:00,
2013-04-05 21:12:00,40.3,25.9,30.15,NNW,331,3.0,6.0,56,0.00,,---,0.00,VWS V14.00,2013-04-06 01:12:00,
2013-04-05 21:14:00,40.2,25.8,30.15,NNW,329,2.0,6.0,56,0.00,,---,0.00,VWS V14.00,2013-04-06 01:14:00,
2013-04-05 21:19:00,40.1,26.1,30.16,NNW,327,3.0,6.0,57,0.00,,---,0.00,VWS V14.00,2013-04-06 01:19:00,
2013-04-05 21:20:00,40.1,26.1,30.16,NW,326,2.0,6.0,57,0.00,,---,0.00,VWS V14.00,2013-04-06 01:20:00,
2013-04-05 21:21:00,40.0,26.0,30.16,NW,325,1.0,6.0,57,0.00,,---,0.00,VWS V14.00,2013-04-06 01:21:00,
2013-04-05 21:25:00,40.0,26.0,30.16,NNW,327,4.0,6.0,57,0.00,,---,0.00,VWS V14.00,2013-04-06 01:25:00,
2013-04-05 21:27:00,39.8,25.8,30.16,NNW,328,2.0,6.0,57,0.00,,---,0.00,VWS V14.00,2013-04-06 01:27:00,
2013-04-05 21:28:00,39.8,25.8,30.16,NNW,328,4.0,6.0,57,0.00,,---,0.00,VWS V14.00,2013-04-06 01:28:00,
2013-04-05 21:30:00,39.7,25.7,30.16,NNW,327,1.0,4.0,57,0.00,,---,0.00,VWS V14.00,2013-04-06 01:30:00,
2013-04-05 21:35:00,39.6,26.1,30.16,NNW,329,3.0,5.0,58,0.00,,---,0.00,VWS V14.00,2013-04-06 01:35:00,
2013-04-05 21:36:00,39.5,26.0,30.16,NNW,331,5.0,5.0,58,0.00,,---,0.00,VWS V14.00,2013-04-06 01:36:00,
2013-04-05 21:37:00,39.5,26.0,30.16,NNW,330,2.0,5.0,58,0.00,,---,0.00,VWS V14.00,2013-04-06 01:37:00,
2013-04-05 21:41:00,39.5,26.0,30.17,NNW,331,3.0,5.0,58,0.00,,---,0.00,VWS V14.00,2013-04-06 01:41:00,
2013-04-05 21:42:00,39.5,26.0,30.17,NNW,332,4.0,5.0,58,0.00,,---,0.00,VWS V14.00,2013-04-06 01:42:00,
2013-04-05 21:44:00,39.4,25.9,30.17,NNW,332,1.0,5.0,58,0.00,,---,0.00,VWS V14.00,2013-04-06 01:44:00,
2013-04-05 21:47:00,39.4,25.9,30.17,NW,325,4.0,5.0,58,0.00,,---,0.00,VWS V14.00,2013-04-06 01:47:00,
2013-04-05 21:48:00,39.4,25.9,30.17,NW,325,3.0,5.0,58,0.00,,---,0.00,VWS V14.00,2013-04-06 01:48:00,
2013-04-05 21:49:00,39.3,25.8,30.17,North,355,3.0,5.0,58,0.00,,---,0.00,VWS V14.00,2013-04-06 01:49:00,
2013-04-05 21:51:00,39.3,25.8,30.17,North,355,1.0,5.0,58,0.00,,---,0.00,VWS V14.00,2013-04-06 01:51:00,
2013-04-05 21:53:00,39.2,25.7,30.17,NNW,348,4.0,5.0,58,0.00,,---,0.00,VWS V14.00,2013-04-06 01:53:00,
2013-04-05 21:55:00,39.1,25.6,30.17,North,355,4.0,7.0,58,0.00,,---,0.00,VWS V14.00,2013-04-06 01:55:00,
2013-04-05 21:58:00,39.1,25.6,30.17,NNW,336,3.0,7.0,58,0.00,,---,0.00,VWS V14.00,2013-04-06 01:58:00,
2013-04-05 22:01:00,39.0,25.5,30.17,NNW,333,2.0,4.0,58,0.00,,---,0.00,VWS V14.00,2013-04-06 02:01:00,
2013-04-05 22:03:00,38.9,25.4,30.17,NNW,333,1.0,4.0,58,0.00,,---,0.00,VWS V14.00,2013-04-06 02:03:00,
2013-04-05 22:04:00,38.9,25.4,30.17,NNW,333,1.0,4.0,58,0.00,,---,0.00,VWS V14.00,2013-04-06 02:04:00,
2013-04-05 22:07:00,38.9,25.4,30.17,NNW,333,1.0,4.0,58,0.00,,---,0.00,VWS V14.00,2013-04-06 02:07:00,
2013-04-05 22:08:00,38.9,25.4,30.17,NNW,342,2.0,4.0,58,0.00,,---,0.00,VWS V14.00,2013-04-06 02:08:00,
2013-04-05 22:10:00,38.8,25.3,30.17,NNW,342,3.0,4.0,58,0.00,,---,0.00,VWS V14.00,2013-04-06 02:10:00,
2013-04-05 22:12:00,38.7,25.2,30.17,North,360,1.0,6.0,58,0.00,,---,0.00,VWS V14.00,2013-04-06 02:12:00,
2013-04-05 22:14:00,38.6,25.1,30.17,North,360,1.0,6.0,58,0.00,,---,0.00,VWS V14.00,2013-04-06 02:14:00,
2013-04-05 22:15:00,38.6,25.1,30.17,North,355,2.0,6.0,58,0.00,,---,0.00,VWS V14.00,2013-04-06 02:15:00,
2013-04-05 22:19:00,38.6,25.1,30.17,North,355,2.0,6.0,58,0.00,,---,0.00,VWS V14.00,2013-04-06 02:19:00,
2013-04-05 22:20:00,38.6,25.5,30.17,North,355,3.0,6.0,59,0.00,,---,0.00,VWS V14.00,2013-04-06 02:20:00,
2013-04-05 22:23:00,38.5,25.0,30.17,North,355,1.0,6.0,58,0.00,,---,0.00,VWS V14.00,2013-04-06 02:23:00,
2013-04-05 22:24:00,38.5,25.4,30.17,North,355,1.0,6.0,59,0.00,,---,0.00,VWS V14.00,2013-04-06 02:24:00,
2013-04-05 22:25:00,38.5,25.4,30.17,North,355,2.0,6.0,59,0.00,,---,0.00,VWS V14.00,2013-04-06 02:25:00,
2013-04-05 22:27:00,38.5,25.4,30.17,North,355,2.0,6.0,59,0.00,,---,0.00,VWS V14.00,2013-04-06 02:27:00,
2013-04-05 22:28:00,38.4,25.3,30.17,North,355,3.0,6.0,59,0.00,,---,0.00,VWS V14.00,2013-04-06 02:28:00,
2013-04-05 22:31:00,38.4,25.3,30.17,North,355,1.0,3.0,59,0.00,,---,0.00,VWS V14.00,2013-04-06 02:31:00,
2013-04-05 22:33:00,38.4,25.3,30.17,North,355,2.0,3.0,59,0.00,,---,0.00,VWS V14.00,2013-04-06 02:33:00,
2013-04-05 22:34:00,38.4,25.3,30.17,North,355,1.0,3.0,59,0.00,,---,0.00,VWS V14.00,2013-04-06 02:34:00,
2013-04-05 22:36:00,38.4,25.3,30.17,North,355,2.0,3.0,59,0.00,,---,0.00,VWS V14.00,2013-04-06 02:36:00,
2013-04-05 22:39:00,38.3,25.2,30.17,North,355,1.0,3.0,59,0.00,,---,0.00,VWS V14.00,2013-04-06 02:39:00,
2013-04-05 22:40:00,38.3,25.2,30.17,North,355,2.0,3.0,59,0.00,,---,0.00,VWS V14.00,2013-04-06 02:40:00,
2013-04-05 22:42:00,38.2,25.1,30.17,North,355,1.0,3.0,59,0.00,,---,0.00,VWS V14.00,2013-04-06 02:42:00,
2013-04-05 22:45:00,38.2,25.1,30.17,North,355,1.0,3.0,59,0.00,,---,0.00,VWS V14.00,2013-04-06 02:45:00,
2013-04-05 22:47:00,38.1,25.1,30.16,North,355,1.0,3.0,59,0.00,,---,0.00,VWS V14.00,2013-04-06 02:47:00,
2013-04-05 22:48:00,38.1,25.1,30.16,North,355,1.0,3.0,59,0.00,,---,0.00,VWS V14.00,2013-04-06 02:48:00,
2013-04-05 22:51:00,38.0,25.4,30.16,North,355,1.0,3.0,60,0.00,,---,0.00,VWS V14.00,2013-04-06 02:51:00,
2013-04-05 22:52:00,38.0,25.4,30.16,North,355,1.0,3.0,60,0.00,,---,0.00,VWS V14.00,2013-04-06 02:52:00,
2013-04-05 22:53:00,38.0,25.4,30.16,North,355,2.0,3.0,60,0.00,,---,0.00,VWS V14.00,2013-04-06 02:53:00,
2013-04-05 22:55:00,37.9,25.3,30.16,North,355,1.0,3.0,60,0.00,,---,0.00,VWS V14.00,2013-04-06 02:55:00,
2013-04-05 22:58:00,37.9,25.3,30.16,North,355,0.0,3.0,60,0.00,,---,0.00,VWS V14.00,2013-04-06 02:58:00,
2013-04-05 22:59:00,37.9,25.7,30.16,North,355,0.0,0.0,61,0.00,,---,0.00,VWS V14.00,2013-04-06 02:59:00,
2013-04-05 23:01:00,37.9,25.7,30.15,North,355,0.0,0.0,61,0.00,,---,0.00,VWS V14.00,2013-04-06 03:01:00,
2013-04-05 23:03:00,37.9,25.7,30.15,North,355,0.0,0.0,61,0.00,,---,0.00,VWS V14.00,2013-04-06 03:03:00,
2013-04-05 23:06:00,37.8,25.6,30.15,North,355,1.0,2.0,61,0.00,,---,0.00,VWS V14.00,2013-04-06 03:06:00,
2013-04-05 23:09:00,37.9,26.1,30.15,North,355,0.0,2.0,62,0.00,,---,0.00,VWS V14.00,2013-04-06 03:09:00,
2013-04-05 23:11:00,37.9,26.1,30.16,North,355,0.0,2.0,62,0.00,,---,0.00,VWS V14.00,2013-04-06 03:11:00,
2013-04-05 23:12:00,37.9,26.5,30.16,North,355,1.0,2.0,63,0.00,,---,0.00,VWS V14.00,2013-04-06 03:12:00,
2013-04-05 23:14:00,37.9,26.1,30.16,North,355,0.0,2.0,62,0.00,,---,0.00,VWS V14.00,2013-04-06 03:14:00,
2013-04-05 23:15:00,37.9,26.5,30.16,North,355,0.0,2.0,63,0.00,,---,0.00,VWS V14.00,2013-04-06 03:15:00,
2013-04-05 23:17:00,37.8,26.0,30.16,North,355,0.0,2.0,62,0.00,,---,0.00,VWS V14.00,2013-04-06 03:17:00,
2013-04-05 23:18:00,37.8,26.0,30.16,North,355,1.0,2.0,62,0.00,,---,0.00,VWS V14.00,2013-04-06 03:18:00,
2013-04-05 23:19:00,37.8,26.0,30.16,North,355,1.0,2.0,62,0.00,,---,0.00,VWS V14.00,2013-04-06 03:19:00,
2013-04-05 23:20:00,37.8,26.0,30.16,North,355,2.0,3.0,62,0.00,,---,0.00,VWS V14.00,2013-04-06 03:20:00,
2013-04-05 23:24:00,37.7,25.5,30.15,North,355,1.0,3.0,61,0.00,,---,0.00,VWS V14.00,2013-04-06 03:24:00,
2013-04-05 23:25:00,37.7,25.5,30.15,North,355,2.0,3.0,61,0.00,,---,0.00,VWS V14.00,2013-04-06 03:25:00,
2013-04-05 23:27:00,37.7,25.5,30.15,North,355,0.0,3.0,61,0.00,,---,0.00,VWS V14.00,2013-04-06 03:27:00,
2013-04-05 23:30:00,37.6,25.4,30.15,North,355,0.0,1.0,61,0.00,,---,0.00,VWS V14.00,2013-04-06 03:30:00,
2013-04-05 23:31:00,37.5,25.3,30.15,North,355,0.0,1.0,61,0.00,,---,0.00,VWS V14.00,2013-04-06 03:31:00,
2013-04-05 23:32:00,37.5,25.7,30.15,North,355,0.0,1.0,62,0.00,,---,0.00,VWS V14.00,2013-04-06 03:32:00,
2013-04-05 23:36:00,37.5,26.1,30.15,North,355,0.0,1.0,63,0.00,,---,0.00,VWS V14.00,2013-04-06 03:36:00,
2013-04-05 23:37:00,37.4,26.0,30.15,North,355,0.0,1.0,63,0.00,,---,0.00,VWS V14.00,2013-04-06 03:37:00,
2013-04-05 23:39:00,37.3,25.9,30.15,North,355,0.0,1.0,63,0.00,,---,0.00,VWS V14.00,2013-04-06 03:39:00,
2013-04-05 23:41:00,37.3,25.9,30.15,North,355,0.0,1.0,63,0.00,,---,0.00,VWS V14.00,2013-04-06 03:41:00,
2013-04-05 23:44:00,37.2,25.8,30.15,North,355,0.0,1.0,63,0.00,,---,0.00,VWS V14.00,2013-04-06 03:44:00,
2013-04-05 23:45:00,37.1,25.7,30.15,North,355,0.0,1.0,63,0.00,,---,0.00,VWS V14.00,2013-04-06 03:45:00,
2013-04-05 23:47:00,37.1,25.7,30.15,North,355,0.0,1.0,63,0.00,,---,0.00,VWS V14.00,2013-04-06 03:47:00,
2013-04-05 23:48:00,37.1,25.7,30.15,North,355,0.0,1.0,63,0.00,,---,0.00,VWS V14.00,2013-04-06 03:48:00,
2013-04-05 23:50:00,37.0,25.6,30.15,North,355,0.0,1.0,63,0.00,,---,0.00,VWS V14.00,2013-04-06 03:50:00,
2013-04-05 23:52:00,37.0,25.6,30.15,North,355,0.0,1.0,63,0.00,,---,0.00,VWS V14.00,2013-04-06 03:52:00,
2013-04-05 23:54:00,37.0,25.6,30.15,North,355,0.0,1.0,63,0.00,,---,0.00,VWS V14.00,2013-04-06 03:54:00,
2013-04-05 23:58:00,37.1,25.7,30.15,North,355,0.0,1.0,63,0.00,,---,0.00,VWS V14.00,2013-04-06 03:58:00,